OK2JF-6 Weather Reports


time (UTC)temp
C
wind
direction
speed
KPH
gust
KPH
rain 1hr
cm
rain 24hr
cm
rain mn
cm
humidity
%
barometer
mb
20260507185803 13 268 4.8 11.3 0.00 0.00 0.00 64 1085.6
20260507185703 13 271 4.8 11.3 0.00 0.00 0.00 64 1085.5
20260507185603 13 270 4.8 11.3 0.00 0.00 0.00 64 1085.4
20260507185517 13 268 4.8 11.3 0.00 0.00 0.00 64 1085.4
20260507185503 13 267 4.8 11.3 0.00 0.00 0.00 64 1085.4
20260507185403 13 267 4.8 11.3 0.00 0.00 0.00 64 1085.4
20260507185217 13 264 4.8 11.3 0.00 0.00 0.00 64 1085.6
20260507185203 13 263 4.8 11.3 0.00 0.00 0.00 64 1085.5
20260507185103 13 260 4.8 11.3 0.00 0.00 0.00 63 1085.2
20260507185018 13 261 4.8 11.3 0.00 0.00 0.00 63 1085.2
20260507184903 13 261 4.8 11.3 0.00 0.00 0.00 63 1085.3
20260507184703 13 258 4.8 11.3 0.00 0.00 0.00 63 1085.6
20260507184603 13 261 4.8 9.7 0.00 0.00 0.00 63 1085.1
20260507184503 13 261 4.8 9.7 0.00 0.00 0.00 62 1085.3
20260507184417 13 262 4.8 9.7 0.00 0.00 0.00 62 1085.3
20260507184403 13 263 4.8 9.7 0.00 0.00 0.00 62 1085.1
20260507184303 13 266 4.8 9.7 0.00 0.00 0.00 62 1085.4
20260507184103 13 271 4.8 9.7 0.00 0.00 0.00 62 1085.2
20260507184003 13 271 4.8 9.7 0.00 0.00 0.00 62 1085.2
20260507183903 13 269 4.8 9.7 0.00 0.00 0.00 61 1085.1
20260507183803 13 266 4.8 11.3 0.00 0.00 0.00 61 1085.3
20260507183718 13 267 4.8 11.3 0.00 0.00 0.00 61 1085.3
20260507183703 13 268 4.8 11.3 0.00 0.00 0.00 61 1085.2
20260507183603 13 269 4.8 11.3 0.00 0.00 0.00 61 1085.2
20260507183403 13 270 4.8 11.3 0.00 0.00 0.00 60 1085.1
20260507183303 13 270 4.8 11.3 0.00 0.00 0.00 60 1085.2
20260507183203 13 270 4.8 11.3 0.00 0.00 0.00 60 1085.1
20260507183103 13 270 4.8 11.3 0.00 0.00 0.00 59 1084.9
20260507183003 13 269 4.8 12.9 0.00 0.00 0.00 60 1084.9
20260507182903 13 273 6.4 14.5 0.00 0.00 0.00 60 1084.9
20260507182803 13 274 4.8 14.5 0.00 0.00 0.00 59 1084.7
20260507182718 13 276 6.4 14.5 0.00 0.00 0.00 59 1084.7
20260507182703 13 275 6.4 14.5 0.00 0.00 0.00 59 1084.7
20260507182616 13 275 6.4 14.5 0.00 0.00 0.00 59 1084.7
20260507182603 13 275 4.8 14.5 0.00 0.00 0.00 59 1085.0
20260507182306 13 274 4.8 14.5 0.00 0.00 0.00 58 1084.7
20260507182203 13 273 4.8 14.5 0.00 0.00 0.00 58 1084.9
20260507182103 14 271 4.8 14.5 0.00 0.00 0.00 58 1084.9
20260507182003 14 270 4.8 14.5 0.00 0.00 0.00 59 1084.9
20260507181903 14 265 3.2 12.9 0.00 0.00 0.00 59 1084.9
20260507181817 14 264 3.2 12.9 0.00 0.00 0.00 59 1084.9
20260507181803 14 263 3.2 12.9 0.00 0.00 0.00 58 1085.0
20260507181703 14 257 3.2 11.3 0.00 0.00 0.00 57 1085.1
20260507181503 14 252 3.2 11.3 0.00 0.00 0.00 57 1084.7
20260507181403 14 248 3.2 11.3 0.00 0.00 0.00 57 1084.9
20260507181303 14 240 3.2 11.3 0.00 0.00 0.00 57 1084.6
20260507181203 14 239 3.2 11.3 0.00 0.00 0.00 57 1084.7
20260507181103 14 240 3.2 11.3 0.00 0.00 0.00 56 1084.9
20260507181003 14 242 3.2 11.3 0.00 0.00 0.00 56 1084.7
20260507180903 14 243 3.2 11.3 0.00 0.00 0.00 56 1084.6
20260507180817 14 243 3.2 11.3 0.00 0.00 0.00 56 1084.6
20260507180803 14 243 3.2 11.3 0.00 0.00 0.00 56 1084.7
20260507180703 14 244 3.2 11.3 0.00 0.00 0.00 56 1084.7
20260507180503 15 248 3.2 11.3 0.00 0.00 0.00 56 1084.6
20260507180403 15 251 3.2 11.3 0.00 0.00 0.00 55 1084.5
20260507180303 15 255 3.2 11.3 0.00 0.00 0.00 55 1084.5
20260507180203 15 258 3.2 11.3 0.00 0.00 0.00 55 1084.5
20260507180003 15 256 3.2 11.3 0.00 0.00 0.00 55 1084.4
20260507175903 15 254 3.2 11.3 0.00 0.00 0.00 55 1084.4
20260507175803 15 256 3.2 11.3 0.00 0.00 0.00 54 1084.7
20260507175703 15 259 3.2 11.3 0.00 0.00 0.00 54 1084.6
20260507175603 15 261 3.2 11.3 0.00 0.00 0.00 54 1084.5
20260507175503 15 260 3.2 11.3 0.00 0.00 0.00 54 1084.5
20260507175403 15 259 3.2 11.3 0.00 0.00 0.00 54 1084.5
20260507175306 15 260 3.2 11.3 0.00 0.00 0.00 54 1084.5
20260507175203 15 259 3.2 11.3 0.00 0.00 0.00 54 1084.5
20260507175103 15 261 3.2 9.7 0.00 0.00 0.00 54 1084.4
20260507175018 15 265 3.2 9.7 0.00 0.00 0.00 53 1084.4
20260507174903 15 270 3.2 9.7 0.00 0.00 0.00 54 1084.7
20260507174703 15 264 3.2 14.5 0.00 0.00 0.00 54 1084.4
20260507174603 15 262 3.2 14.5 0.00 0.00 0.00 53 1084.4
20260507174517 15 261 4.8 14.5 0.00 0.00 0.00 53 1084.4
20260507174503 15 261 4.8 14.5 0.00 0.00 0.00 53 1084.3
20260507174403 15 260 4.8 14.5 0.00 0.00 0.00 53 1084.3
20260507174204 15 257 4.8 14.5 0.00 0.00 0.00 53 1084.4
20260507174103 15 256 4.8 14.5 0.00 0.00 0.00 52 1084.3
20260507174003 15 253 4.8 14.5 0.00 0.00 0.00 52 1084.3
20260507173903 15 252 4.8 14.5 0.00 0.00 0.00 52 1084.4
20260507173803 15 252 4.8 14.5 0.00 0.00 0.00 52 1084.5
20260507173703 15 250 4.8 14.5 0.00 0.00 0.00 52 1084.5
20260507173618 15 248 4.8 14.5 0.00 0.00 0.00 52 1084.5
20260507173603 15 247 4.8 14.5 0.00 0.00 0.00 52 1084.3
20260507173503 15 242 4.8 12.9 0.00 0.00 0.00 52 1084.2
20260507173303 16 243 3.2 12.9 0.00 0.00 0.00 51 1084.5
20260507173203 16 242 3.2 12.9 0.00 0.00 0.00 51 1084.4
20260507173103 16 241 3.2 12.9 0.00 0.00 0.00 51 1084.2
20260507173003 16 241 3.2 12.9 0.00 0.00 0.00 51 1084.4
20260507172903 16 241 3.2 11.3 0.00 0.00 0.00 51 1084.3
20260507172803 16 241 3.2 11.3 0.00 0.00 0.00 51 1084.3
20260507172703 16 244 1.6 9.7 0.00 0.00 0.00 51 1084.1
20260507172516 16 265 1.6 4.8 0.00 0.00 0.00 52 1084.4
20260507172503 16 267 1.6 4.8 0.00 0.00 0.00 52 1084.3
20260507172403 16 268 1.6 4.8 0.00 0.00 0.00 52 1084.3
20260507172203 16 272 1.6 4.8 0.00 0.00 0.00 51 1084.2
20260507172103 16 275 1.6 4.8 0.00 0.00 0.00 51 1084.3
20260507172003 16 275 1.6 9.7 0.00 0.00 0.00 52 1084.3
20260507171903 16 274 3.2 9.7 0.00 0.00 0.00 51 1084.3
20260507171803 16 275 3.2 9.7 0.00 0.00 0.00 51 1084.2
20260507171703 16 274 3.2 9.7 0.00 0.00 0.00 51 1084.2
20260507171618 16 268 3.2 9.7 0.00 0.00 0.00 51 1084.2
20260507171603 16 268 3.2 9.7 0.00 0.00 0.00 51 1084.5
20260507171503 16 269 3.2 9.7 0.00 0.00 0.00 51 1084.1
20260507171303 16 268 3.2 9.7 0.00 0.00 0.00 51 1084.5
20260507171203 16 270 3.2 9.7 0.00 0.00 0.00 51 1084.1
20260507171103 16 274 3.2 9.7 0.00 0.00 0.00 51 1084.4
20260507171003 16 275 3.2 9.7 0.00 0.00 0.00 51 1084.3
20260507170918 16 275 3.2 9.7 0.00 0.00 0.00 51 1084.3
20260507170903 16 275 3.2 9.7 0.00 0.00 0.00 51 1084.1
20260507170803 16 273 3.2 9.7 0.00 0.00 0.00 51 1084.1
20260507170603 16 273 3.2 9.7 0.00 0.00 0.00 51 1084.2
20260507170503 16 272 3.2 9.7 0.00 0.00 0.00 51 1084.3
20260507170417 16 274 3.2 9.7 0.00 0.00 0.00 51 1084.0
20260507170403 16 275 3.2 9.7 0.00 0.00 0.00 51 1084.0
20260507170303 16 276 3.2 12.9 0.00 0.00 0.00 51 1084.1
20260507170103 16 272 4.8 12.9 0.00 0.00 0.00 52 1084.2
20260507170003 16 271 4.8 12.9 0.00 0.00 0.00 52 1084.1
20260507165903 16 270 4.8 12.9 0.00 0.00 0.00 52 1084.0
20260507165803 16 268 4.8 12.9 0.00 0.00 0.00 51 1084.1
20260507165703 16 268 4.8 12.9 0.00 0.00 0.00 51 1084.1
20260507165603 16 268 4.8 12.9 0.00 0.00 0.00 51 1084.0
20260507165503 16 267 4.8 12.9 0.00 0.00 0.00 50 1084.3
20260507165403 16 263 4.8 12.9 0.00 0.00 0.00 51 1084.0
20260507165203 16 262 4.8 11.3 0.00 0.00 0.00 52 1084.4
20260507165103 16 261 4.8 11.3 0.00 0.00 0.00 52 1083.9
20260507165003 16 259 4.8 11.3 0.00 0.00 0.00 52 1084.2
20260507164903 16 254 4.8 11.3 0.00 0.00 0.00 52 1084.1
20260507164803 16 256 4.8 9.7 0.00 0.00 0.00 52 1084.2
20260507164717 16 258 4.8 9.7 0.00 0.00 0.00 52 1084.2
20260507164703 16 256 4.8 9.7 0.00 0.00 0.00 52 1084.1
20260507164603 16 256 4.8 12.9 0.00 0.00 0.00 52 1084.0
20260507164417 16 258 4.8 12.9 0.00 0.00 0.00 52 1084.1
20260507164403 16 258 4.8 12.9 0.00 0.00 0.00 52 1084.2
20260507164317 16 257 4.8 12.9 0.00 0.00 0.00 52 1084.2
20260507164303 16 256 4.8 12.9 0.00 0.00 0.00 52 1084.3
20260507164218 16 254 4.8 12.9 0.00 0.00 0.00 52 1084.3
20260507163903 16 254 4.8 14.5 0.00 0.00 0.00 51 1084.3
20260507163803 16 254 6.4 14.5 0.00 0.00 0.00 52 1084.0
20260507163703 16 254 6.4 14.5 0.00 0.00 0.00 52 1084.1
20260507163603 16 252 6.4 14.5 0.00 0.00 0.00 51 1084.3
20260507163503 16 250 6.4 16.1 0.00 0.00 0.00 51 1084.2
20260507163403 16 251 4.8 16.1 0.00 0.00 0.00 52 1084.3
20260507163303 16 253 4.8 16.1 0.00 0.00 0.00 52 1084.3
20260507163203 16 252 6.4 16.1 0.00 0.00 0.00 52 1084.0
20260507163117 16 253 6.4 16.1 0.00 0.00 0.00 52 1084.0
20260507163103 16 253 6.4 16.1 0.00 0.00 0.00 52 1084.2
20260507163003 16 255 6.4 16.1 0.00 0.00 0.00 51 1084.0
20260507162803 16 253 4.8 16.1 0.00 0.00 0.00 53 1084.3
20260507162717 16 248 4.8 16.1 0.00 0.00 0.00 53 1084.3
20260507162703 16 245 4.8 16.1 0.00 0.00 0.00 53 1084.1
20260507162603 16 248 6.4 22.5 0.00 0.00 0.00 52 1084.0
20260507162518 16 251 6.4 22.5 0.00 0.00 0.00 52 1084.0
20260507162403 16 254 6.4 22.5 0.00 0.00 0.00 52 1084.1
20260507162203 16 258 8.0 22.5 0.00 0.00 0.00 51 1084.2
20260507162103 17 259 8.0 22.5 0.00 0.00 0.00 51 1084.3
20260507162003 17 255 8.0 22.5 0.00 0.00 0.00 51 1084.0
20260507161903 17 263 8.0 22.5 0.00 0.00 0.00 50 1084.0
20260507161816 17 268 8.0 22.5 0.00 0.00 0.00 50 1084.0
20260507161803 17 267 8.0 22.5 0.00 0.00 0.00 50 1083.9
20260507161703 17 273 8.0 22.5 0.00 0.00 0.00 51 1084.1
20260507161503 17 280 6.4 20.9 0.00 0.00 0.00 50 1084.0
20260507161403 17 280 6.4 20.9 0.00 0.00 0.00 51 1084.2
20260507161303 17 277 6.4 20.9 0.00 0.00 0.00 51 1084.0
20260507161203 17 280 6.4 20.9 0.00 0.00 0.00 52 1084.3
20260507161103 17 274 6.4 20.9 0.00 0.00 0.00 52 1083.9
20260507161003 17 271 8.0 20.9 0.00 0.00 0.00 52 1083.9
20260507160903 17 266 6.4 16.1 0.00 0.00 0.00 52 1083.9
20260507160804 17 262 6.4 16.1 0.00 0.00 0.00 52 1083.9
20260507160717 17 261 6.4 16.1 0.00 0.00 0.00 52 1083.9
20260507160703 17 262 6.4 16.1 0.00 0.00 0.00 52 1084.1
20260507160603 17 260 6.4 16.1 0.00 0.00 0.00 52 1084.2
20260507160403 17 260 6.4 16.1 0.00 0.00 0.00 52 1084.0
20260507160303 17 263 6.4 16.1 0.00 0.00 0.00 52 1083.9
20260507160203 17 261 6.4 16.1 0.00 0.00 0.00 52 1084.1
20260507160003 17 277 6.4 16.1 0.00 0.00 0.00 53 1084.0
20260507155903 16 277 6.4 16.1 0.00 0.00 0.00 53 1084.0
20260507155803 16 280 6.4 16.1 0.00 0.00 0.00 53 1084.1
20260507155703 16 278 6.4 16.1 0.00 0.00 0.00 53 1084.1
20260507155617 16 282 8.0 16.1 0.00 0.00 0.00 53 1084.1
20260507155603 16 282 6.4 16.1 0.00 0.00 0.00 53 1084.0
20260507155503 16 280 6.4 16.1 0.00 0.00 0.00 54 1084.1
20260507155306 16 278 6.4 16.1 0.00 0.00 0.00 53 1083.8
20260507155203 16 278 6.4 16.1 0.00 0.00 0.00 53 1084.1
20260507155103 16 274 6.4 16.1 0.00 0.00 0.00 53 1084.1
20260507155003 16 278 4.8 14.5 0.00 0.00 0.00 54 1084.1
20260507154903 16 277 4.8 14.5 0.00 0.00 0.00 54 1083.9
20260507154818 16 271 4.8 14.5 0.00 0.00 0.00 54 1083.9
20260507154803 16 269 4.8 14.5 0.00 0.00 0.00 54 1083.9
20260507154703 16 264 4.8 14.5 0.00 0.00 0.00 54 1083.9
20260507154518 16 259 6.4 14.5 0.00 0.00 0.00 55 1084.3
20260507154503 16 259 6.4 14.5 0.00 0.00 0.00 55 1084.0
20260507154416 16 260 6.4 14.5 0.00 0.00 0.00 55 1084.0
20260507154403 16 260 6.4 14.5 0.00 0.00 0.00 55 1083.9
20260507154103 16 264 8.0 20.9 0.00 0.00 0.00 54 1084.1
20260507154003 16 265 8.0 20.9 0.00 0.00 0.00 54 1083.9
20260507153903 16 267 9.7 20.9 0.00 0.00 0.00 54 1084.1
20260507153803 16 270 9.7 20.9 0.00 0.00 0.00 54 1084.0
20260507153703 16 274 9.7 20.9 0.00 0.00 0.00 54 1083.9
20260507153603 16 272 8.0 20.9 0.00 0.00 0.00 54 1084.0
20260507153503 16 273 8.0 20.9 0.00 0.00 0.00 54 1083.9
20260507153403 16 273 8.0 20.9 0.00 0.00 0.00 54 1084.0
20260507153303 16 272 6.4 20.9 0.00 0.00 0.00 53 1084.1
20260507153217 17 271 6.4 20.9 0.00 0.00 0.00 53 1084.1
20260507153203 17 269 6.4 20.9 0.00 0.00 0.00 53 1083.9
20260507153103 17 262 6.4 17.7 0.00 0.00 0.00 53 1084.1
20260507152917 17 250 4.8 17.7 0.00 0.00 0.00 53 1084.1
20260507152903 17 250 4.8 17.7 0.00 0.00 0.00 53 1083.9
20260507152818 17 247 4.8 17.7 0.00 0.00 0.00 53 1083.9
20260507152803 17 246 4.8 17.7 0.00 0.00 0.00 53 1083.9
20260507152503 17 243 3.2 17.7 0.00 0.00 0.00 54 1083.9
20260507152403 17 244 3.2 17.7 0.00 0.00 0.00 53 1084.0
20260507152306 17 249 3.2 17.7 0.00 0.00 0.00 53 1084.0
20260507152203 17 257 3.2 17.7 0.00 0.00 0.00 53 1084.3
20260507152103 17 260 3.2 12.9 0.00 0.00 0.00 54 1084.1
20260507152003 17 264 3.2 12.9 0.00 0.00 0.00 55 1084.2
20260507151903 16 265 4.8 12.9 0.00 0.00 0.00 54 1084.0
20260507151803 16 267 4.8 12.9 0.00 0.00 0.00 54 1083.7
20260507151703 16 269 4.8 12.9 0.00 0.00 0.00 54 1083.8
20260507151603 16 273 4.8 12.9 0.00 0.00 0.00 55 1083.9
20260507151518 16 272 4.8 12.9 0.00 0.00 0.00 54 1083.9
20260507151503 16 271 4.8 12.9 0.00 0.00 0.00 54 1084.0
20260507151403 16 270 6.4 12.9 0.00 0.00 0.00 54 1084.0
20260507151203 16 270 6.4 16.1 0.00 0.00 0.00 54 1083.9
20260507151103 16 271 6.4 17.7 0.00 0.00 0.00 54 1084.0
20260507151003 16 266 8.0 17.7 0.00 0.00 0.00 53 1083.8
20260507150903 17 268 8.0 20.9 0.00 0.00 0.00 53 1084.1
20260507150818 17 268 8.0 20.9 0.00 0.00 0.00 53 1084.1
20260507150803 17 268 8.0 20.9 0.00 0.00 0.00 53 1084.0
20260507150703 17 271 8.0 20.9 0.00 0.00 0.00 53 1083.7
20260507150503 17 273 8.0 20.9 0.00 0.00 0.00 53 1083.9
20260507150403 17 273 9.7 20.9 0.00 0.00 0.00 53 1083.9
20260507150203 17 277 9.7 22.5 0.00 0.00 0.00 52 1083.8
20260507150003 17 280 11.3 22.5 0.00 0.00 0.00 52 1083.9
20260507145903 17 278 11.3 22.5 0.00 0.00 0.00 52 1083.8
20260507145803 17 281 11.3 25.7 0.00 0.00 0.00 52 1083.7
20260507145703 17 278 11.3 25.7 0.00 0.00 0.00 52 1083.8
20260507145603 17 274 11.3 25.7 0.00 0.00 0.00 52 1083.9
20260507145503 17 271 11.3 25.7 0.00 0.00 0.00 52 1083.7
20260507145403 17 271 11.3 25.7 0.00 0.00 0.00 51 1083.7
20260507145306 18 268 11.3 25.7 0.00 0.00 0.00 50 1083.9
20260507145203 18 264 9.7 25.7 0.00 0.00 0.00 50 1083.7
20260507145103 18 264 9.7 25.7 0.00 0.00 0.00 50 1083.8
20260507145003 18 264 9.7 25.7 0.00 0.00 0.00 50 1083.9
20260507144903 18 266 9.7 25.7 0.00 0.00 0.00 49 1083.6
20260507144818 18 264 9.7 25.7 0.00 0.00 0.00 49 1083.6
20260507144803 18 263 9.7 25.7 0.00 0.00 0.00 50 1083.7
20260507144716 18 266 9.7 25.7 0.00 0.00 0.00 50 1083.7
20260507144703 18 266 9.7 25.7 0.00 0.00 0.00 50 1083.7
20260507144617 18 268 9.7 25.7 0.00 0.00 0.00 50 1083.7
20260507144303 18 278 8.0 25.7 0.00 0.00 0.00 49 1083.6
20260507144217 18 278 8.0 25.7 0.00 0.00 0.00 49 1083.6
20260507144203 18 278 8.0 25.7 0.00 0.00 0.00 49 1083.7
20260507144103 18 278 8.0 25.7 0.00 0.00 0.00 49 1083.7
20260507143903 18 271 8.0 17.7 0.00 0.00 0.00 49 1083.9
20260507143818 18 267 8.0 17.7 0.00 0.00 0.00 50 1083.9
20260507143803 18 267 8.0 17.7 0.00 0.00 0.00 50 1083.6
20260507143703 18 261 6.4 17.7 0.00 0.00 0.00 52 1083.6
20260507143503 18 257 8.0 17.7 0.00 0.00 0.00 52 1083.8
20260507143403 17 255 8.0 14.5 0.00 0.00 0.00 53 1083.7
20260507143303 17 257 8.0 16.1 0.00 0.00 0.00 54 1083.6
20260507143203 17 266 8.0 17.7 0.00 0.00 0.00 54 1083.5
20260507143103 17 271 9.7 22.5 0.00 0.00 0.00 53 1083.7
20260507143003 17 277 9.7 22.5 0.00 0.00 0.00 53 1083.6
20260507142903 17 281 8.0 22.5 0.00 0.00 0.00 53 1083.4
20260507142803 17 282 8.0 22.5 0.00 0.00 0.00 53 1083.6
20260507142703 17 283 8.0 22.5 0.00 0.00 0.00 52 1083.6
20260507142603 17 281 8.0 22.5 0.00 0.00 0.00 52 1083.7
20260507142503 17 280 8.0 22.5 0.00 0.00 0.00 52 1083.7
20260507142403 18 277 8.0 22.5 0.00 0.00 0.00 52 1083.6
20260507142317 18 277 8.0 22.5 0.00 0.00 0.00 52 1083.6
20260507142306 18 276 8.0 22.5 0.00 0.00 0.00 51 1083.8
20260507142217 18 270 6.4 22.5 0.00 0.00 0.00 51 1083.8
20260507142203 18 268 6.4 22.5 0.00 0.00 0.00 52 1083.7
20260507141903 18 248 6.4 16.1 0.00 0.00 0.00 51 1083.7
20260507141817 18 248 6.4 16.1 0.00 0.00 0.00 52 1083.7
20260507141803 18 249 6.4 16.1 0.00 0.00 0.00 52 1083.5
20260507141703 18 249 6.4 16.1 0.00 0.00 0.00 52 1083.7
20260507141617 18 248 6.4 16.1 0.00 0.00 0.00 52 1083.7
20260507141503 18 254 6.4 16.1 0.00 0.00 0.00 52 1083.6
20260507141303 17 265 8.0 16.1 0.00 0.00 0.00 52 1083.8
20260507141203 17 263 8.0 17.7 0.00 0.00 0.00 51 1084.0
20260507141103 18 267 8.0 17.7 0.00 0.00 0.00 51 1083.6
20260507141003 18 271 8.0 17.7 0.00 0.00 0.00 51 1083.8
20260507140903 18 271 8.0 17.7 0.00 0.00 0.00 52 1083.8
20260507140803 18 271 8.0 17.7 0.00 0.00 0.00 52 1084.0
20260507140703 18 270 8.0 17.7 0.00 0.00 0.00 51 1083.9
20260507140603 18 271 6.4 17.7 0.00 0.00 0.00 51 1083.9
20260507140503 18 270 6.4 17.7 0.00 0.00 0.00 51 1084.0
20260507140403 18 266 6.4 17.7 0.00 0.00 0.00 50 1083.8
20260507140303 18 259 6.4 17.7 0.00 0.00 0.00 50 1083.9
20260507140217 18 258 6.4 17.7 0.00 0.00 0.00 51 1083.9
20260507140203 18 258 4.8 17.7 0.00 0.00 0.00 51 1083.9
20260507140118 18 255 4.8 14.5 0.00 0.00 0.00 51 1083.9
20260507135817 18 245 3.2 14.5 0.00 0.00 0.00 51 1083.7
20260507135803 18 248 3.2 14.5 0.00 0.00 0.00 51 1084.0
20260507135703 18 252 3.2 14.5 0.00 0.00 0.00 51 1083.9
20260507135503 18 251 3.2 14.5 0.00 0.00 0.00 51 1083.8
20260507135403 18 250 3.2 14.5 0.00 0.00 0.00 51 1083.7
20260507135306 18 248 3.2 14.5 0.00 0.00 0.00 53 1083.9
20260507135203 18 238 4.8 14.5 0.00 0.00 0.00 51 1083.9
20260507135103 18 231 4.8 14.5 0.00 0.00 0.00 51 1083.9
20260507135003 18 228 4.8 14.5 0.00 0.00 0.00 51 1083.9
20260507134903 18 221 4.8 14.5 0.00 0.00 0.00 51 1083.8
20260507134819 18 223 4.8 14.5 0.00 0.00 0.00 50 1083.8
20260507134803 18 222 4.8 14.5 0.00 0.00 0.00 50 1084.1
20260507134703 18 217 6.4 14.5 0.00 0.00 0.00 50 1083.7
20260507134503 18 213 4.8 14.5 0.00 0.00 0.00 50 1083.9
20260507134403 18 217 6.4 14.5 0.00 0.00 0.00 50 1083.9
20260507134303 18 220 6.4 14.5 0.00 0.00 0.00 49 1084.0
20260507134203 18 235 6.4 16.1 0.00 0.00 0.00 49 1083.8
20260507134103 18 242 6.4 17.7 0.00 0.00 0.00 49 1084.0
20260507134003 18 249 6.4 17.7 0.00 0.00 0.00 50 1083.9
20260507133903 18 258 6.4 17.7 0.00 0.00 0.00 48 1083.8
20260507133803 18 254 6.4 17.7 0.00 0.00 0.00 49 1083.9
20260507133703 18 264 6.4 17.7 0.00 0.00 0.00 49 1083.8
20260507133603 18 265 6.4 17.7 0.00 0.00 0.00 49 1083.6
20260507133503 18 265 6.4 17.7 0.00 0.00 0.00 48 1084.0
20260507133403 18 264 6.4 17.7 0.00 0.00 0.00 48 1083.9
20260507133303 18 267 6.4 17.7 0.00 0.00 0.00 48 1084.2
20260507133203 18 268 6.4 17.7 0.00 0.00 0.00 48 1084.0
20260507133103 18 268 4.8 12.9 0.00 0.00 0.00 48 1083.8
20260507133003 18 263 4.8 22.5 0.00 0.00 0.00 48 1084.0
20260507132903 18 260 6.4 22.5 0.00 0.00 0.00 48 1083.9
20260507132803 18 260 4.8 22.5 0.00 0.00 0.00 49 1084.0
20260507132703 18 252 4.8 22.5 0.00 0.00 0.00 49 1084.0
20260507132603 18 246 4.8 22.5 0.00 0.00 0.00 48 1083.9
20260507132503 18 244 4.8 22.5 0.00 0.00 0.00 48 1084.0
20260507132403 18 244 4.8 22.5 0.00 0.00 0.00 48 1083.8
20260507132307 18 239 4.8 22.5 0.00 0.00 0.00 48 1084.1
20260507132203 18 232 4.8 22.5 0.00 0.00 0.00 48 1083.9
20260507132103 18 230 4.8 22.5 0.00 0.00 0.00 47 1083.9
20260507132003 18 219 4.8 20.9 0.00 0.00 0.00 47 1083.8
20260507131903 18 210 4.8 12.9 0.00 0.00 0.00 48 1083.9
20260507131817 18 212 4.8 12.9 0.00 0.00 0.00 49 1083.9
20260507131803 18 213 4.8 12.9 0.00 0.00 0.00 49 1084.1
20260507131703 18 221 4.8 12.9 0.00 0.00 0.00 49 1083.9
20260507131616 18 219 4.8 12.9 0.00 0.00 0.00 48 1083.9
20260507131503 18 219 4.8 12.9 0.00 0.00 0.00 48 1083.8
20260507131303 18 226 4.8 12.9 0.00 0.00 0.00 49 1083.9
20260507131203 18 230 6.4 12.9 0.00 0.00 0.00 49 1084.0
20260507131103 18 238 6.4 12.9 0.00 0.00 0.00 49 1084.0
20260507131018 18 243 6.4 12.9 0.00 0.00 0.00 48 1084.0
20260507131003 18 247 4.8 12.9 0.00 0.00 0.00 48 1084.0
20260507130903 18 248 4.8 12.9 0.00 0.00 0.00 48 1083.9
20260507130703 18 240 4.8 12.9 0.00 0.00 0.00 47 1084.0
20260507130603 18 244 6.4 22.5 0.00 0.00 0.00 48 1084.0
20260507130517 18 248 6.4 22.5 0.00 0.00 0.00 47 1084.0
20260507130503 18 247 6.4 22.5 0.00 0.00 0.00 47 1084.0
20260507130403 18 248 6.4 22.5 0.00 0.00 0.00 48 1083.9
20260507130318 18 245 6.4 22.5 0.00 0.00 0.00 48 1083.9
20260507130203 18 245 6.4 22.5 0.00 0.00 0.00 48 1084.1
20260507130003 18 240 6.4 22.5 0.00 0.00 0.00 48 1083.9
20260507125903 18 241 6.4 22.5 0.00 0.00 0.00 48 1084.0
20260507125817 18 241 6.4 22.5 0.00 0.00 0.00 48 1083.8
20260507125803 18 241 6.4 22.5 0.00 0.00 0.00 48 1083.8
20260507125703 18 241 6.4 22.5 0.00 0.00 0.00 47 1083.7
20260507125618 18 237 6.4 22.5 0.00 0.00 0.00 48 1083.7
20260507125517 18 229 4.8 16.1 0.00 0.00 0.00 48 1083.8
20260507125503 18 228 4.8 16.1 0.00 0.00 0.00 48 1083.8
20260507125203 18 221 4.8 11.3 0.00 0.00 0.00 49 1083.9
20260507125103 18 221 4.8 11.3 0.00 0.00 0.00 49 1083.9
20260507125018 18 221 4.8 11.3 0.00 0.00 0.00 49 1083.9
20260507125003 18 221 4.8 11.3 0.00 0.00 0.00 49 1083.8
20260507124903 18 219 4.8 11.3 0.00 0.00 0.00 49 1084.1
20260507124703 19 229 4.8 14.5 0.00 0.00 0.00 48 1083.8
20260507124603 19 239 4.8 14.5 0.00 0.00 0.00 48 1083.8
20260507124503 19 245 4.8 14.5 0.00 0.00 0.00 48 1083.8
20260507124403 19 246 6.4 14.5 0.00 0.00 0.00 48 1084.1
20260507124303 19 251 6.4 14.5 0.00 0.00 0.00 48 1083.8
20260507124203 19 248 4.8 14.5 0.00 0.00 0.00 47 1083.9
20260507124103 19 242 4.8 14.5 0.00 0.00 0.00 48 1083.9
20260507124003 19 236 6.4 14.5 0.00 0.00 0.00 47 1083.9
20260507123903 19 229 6.4 14.5 0.00 0.00 0.00 47 1083.9
20260507123803 19 214 6.4 16.1 0.00 0.00 0.00 47 1083.8
20260507123717 19 213 6.4 16.1 0.00 0.00 0.00 47 1083.8
20260507123703 19 208 6.4 16.1 0.00 0.00 0.00 47 1084.0
20260507123603 19 201 6.4 16.1 0.00 0.00 0.00 48 1083.8
20260507123403 19 192 6.4 16.1 0.00 0.00 0.00 49 1084.1
20260507123303 19 186 6.4 16.1 0.00 0.00 0.00 48 1083.9
20260507123203 19 183 6.4 16.1 0.00 0.00 0.00 48 1083.9
20260507123103 19 182 6.4 16.1 0.00 0.00 0.00 48 1083.9
20260507123003 19 182 6.4 16.1 0.00 0.00 0.00 48 1083.9
20260507122903 19 187 6.4 16.1 0.00 0.00 0.00 47 1084.0
20260507122803 19 188 6.4 16.1 0.00 0.00 0.00 48 1083.9
20260507122705 19 185 6.4 16.1 0.00 0.00 0.00 48 1083.6
20260507122603 19 183 6.4 16.1 0.00 0.00 0.00 48 1083.9
20260507122503 19 184 6.4 14.5 0.00 0.00 0.00 49 1083.8
20260507122403 19 184 6.4 14.5 0.00 0.00 0.00 49 1084.0
20260507122306 18 188 6.4 14.5 0.00 0.00 0.00 49 1083.9
20260507122203 18 196 6.4 14.5 0.00 0.00 0.00 49 1083.7
20260507122103 18 204 6.4 14.5 0.00 0.00 0.00 49 1083.9
20260507122003 18 209 6.4 14.5 0.00 0.00 0.00 49 1083.9
20260507121903 18 213 6.4 14.5 0.00 0.00 0.00 49 1084.0
20260507121803 18 217 6.4 12.9 0.00 0.00 0.00 49 1083.9
20260507121703 18 217 6.4 12.9 0.00 0.00 0.00 49 1084.0
20260507121603 19 215 8.0 14.5 0.00 0.00 0.00 49 1084.0
20260507121503 19 217 6.4 14.5 0.00 0.00 0.00 49 1084.0
20260507121403 19 212 8.0 20.9 0.00 0.00 0.00 48 1083.8
20260507121303 19 211 8.0 20.9 0.00 0.00 0.00 47 1083.9
20260507121203 19 205 8.0 20.9 0.00 0.00 0.00 48 1083.9
20260507121103 19 203 8.0 20.9 0.00 0.00 0.00 47 1084.0
20260507121003 20 192 8.0 20.9 0.00 0.00 0.00 47 1083.7
20260507120903 20 185 8.0 20.9 0.00 0.00 0.00 47 1083.8
20260507120803 20 183 8.0 20.9 0.00 0.00 0.00 46 1084.0
20260507120703 20 183 6.4 20.9 0.00 0.00 0.00 46 1083.6
20260507120603 20 174 6.4 20.9 0.00 0.00 0.00 47 1083.9
20260507120503 20 170 6.4 20.9 0.00 0.00 0.00 47 1083.6
20260507120403 20 173 6.4 20.9 0.00 0.00 0.00 48 1083.7
20260507120303 20 178 6.4 20.9 0.00 0.00 0.00 48 1083.9
20260507120216 20 181 6.4 20.9 0.00 0.00 0.00 47 1083.9
20260507120203 20 180 6.4 20.9 0.00 0.00 0.00 47 1084.0
20260507115918 19 178 6.4 17.7 0.00 0.00 0.00 48 1083.9
20260507115903 19 178 6.4 17.7 0.00 0.00 0.00 48 1083.7
20260507115803 19 181 6.4 17.7 0.00 0.00 0.00 48 1083.8
20260507115717 19 190 6.4 17.7 0.00 0.00 0.00 48 1083.8
20260507115603 19 205 8.0 20.9 0.00 0.00 0.00 50 1084.0
20260507115417 19 212 8.0 20.9 0.00 0.00 0.00 50 1083.8
20260507115403 19 212 8.0 20.9 0.00 0.00 0.00 50 1083.9
20260507115306 18 221 8.0 20.9 0.00 0.00 0.00 51 1083.7
20260507115103 18 231 6.4 20.9 0.00 0.00 0.00 50 1083.9
20260507115003 18 240 6.4 20.9 0.00 0.00 0.00 49 1083.8
20260507114903 18 249 6.4 20.9 0.00 0.00 0.00 49 1083.8
20260507114803 18 253 6.4 20.9 0.00 0.00 0.00 49 1083.6
20260507114703 19 251 6.4 16.1 0.00 0.00 0.00 48 1083.6
20260507114618 19 249 6.4 16.1 0.00 0.00 0.00 48 1083.6
20260507114603 19 250 6.4 16.1 0.00 0.00 0.00 48 1083.8
20260507114503 19 251 6.4 16.1 0.00 0.00 0.00 48 1083.8
20260507114417 19 250 6.4 16.1 0.00 0.00 0.00 49 1083.8
20260507114303 19 245 6.4 14.5 0.00 0.00 0.00 49 1083.8
20260507114003 20 241 6.4 14.5 0.00 0.00 0.00 48 1083.8
20260507113918 20 236 6.4 12.9 0.00 0.00 0.00 48 1083.8
20260507113903 20 235 6.4 12.9 0.00 0.00 0.00 48 1084.0
20260507113803 20 233 4.8 12.9 0.00 0.00 0.00 47 1083.9
20260507113603 20 218 4.8 12.9 0.00 0.00 0.00 49 1083.8
20260507113516 20 211 4.8 11.3 0.00 0.00 0.00 49 1083.8
20260507113503 20 210 4.8 11.3 0.00 0.00 0.00 49 1083.8
20260507113403 20 204 3.2 11.3 0.00 0.00 0.00 50 1083.8
20260507113203 20 196 4.8 11.3 0.00 0.00 0.00 49 1083.8
20260507113103 19 197 3.2 11.3 0.00 0.00 0.00 49 1083.9
20260507113003 19 197 3.2 11.3 0.00 0.00 0.00 49 1084.0
20260507112903 20 204 3.2 11.3 0.00 0.00 0.00 49 1083.9
20260507112803 20 210 4.8 12.9 0.00 0.00 0.00 49 1084.0
20260507112703 20 223 4.8 12.9 0.00 0.00 0.00 49 1083.9
20260507112603 20 223 4.8 12.9 0.00 0.00 0.00 48 1083.9
20260507112503 20 227 4.8 12.9 0.00 0.00 0.00 48 1084.0
20260507112403 20 233 4.8 12.9 0.00 0.00 0.00 49 1083.9
20260507112306 20 239 4.8 12.9 0.00 0.00 0.00 49 1084.1
20260507112203 20 241 4.8 12.9 0.00 0.00 0.00 48 1084.0
20260507112103 20 247 4.8 12.9 0.00 0.00 0.00 48 1084.1
20260507112003 20 252 4.8 12.9 0.00 0.00 0.00 48 1083.9
20260507111904 20 245 4.8 12.9 0.00 0.00 0.00 48 1084.0
20260507111803 20 241 4.8 11.3 0.00 0.00 0.00 49 1084.1
20260507111703 20 238 4.8 11.3 0.00 0.00 0.00 49 1084.0
20260507111603 20 243 4.8 11.3 0.00 0.00 0.00 48 1084.2
20260507111503 20 243 4.8 11.3 0.00 0.00 0.00 48 1084.2
20260507111403 20 237 4.8 11.3 0.00 0.00 0.00 48 1083.7
20260507111303 20 242 4.8 16.1 0.00 0.00 0.00 48 1083.8
20260507111203 20 248 4.8 16.1 0.00 0.00 0.00 48 1083.9
20260507111103 20 250 4.8 16.1 0.00 0.00 0.00 48 1083.9
20260507111003 20 252 4.8 16.1 0.00 0.00 0.00 49 1083.8
20260507110918 20 257 4.8 16.1 0.00 0.00 0.00 49 1083.8
20260507110903 20 258 4.8 16.1 0.00 0.00 0.00 49 1084.0
20260507110803 20 257 6.4 16.1 0.00 0.00 0.00 48 1083.8
20260507110603 20 243 6.4 16.1 0.00 0.00 0.00 47 1083.9
20260507110503 20 233 6.4 16.1 0.00 0.00 0.00 46 1083.6
20260507110403 20 230 6.4 16.1 0.00 0.00 0.00 45 1083.9
20260507110303 20 218 6.4 14.5 0.00 0.00 0.00 46 1083.8
20260507110218 21 209 6.4 14.5 0.00 0.00 0.00 45 1083.8
20260507110203 21 207 4.8 14.5 0.00 0.00 0.00 45 1083.6
20260507110116 21 205 4.8 14.5 0.00 0.00 0.00 46 1083.6
20260507110103 21 207 4.8 14.5 0.00 0.00 0.00 46 1084.0
20260507105918 21 213 6.4 14.5 0.00 0.00 0.00 47 1084.0
20260507105803 21 215 6.4 14.5 0.00 0.00 0.00 47 1084.0
20260507105617 21 226 6.4 12.9 0.00 0.00 0.00 47 1083.9
20260507105603 20 230 6.4 12.9 0.00 0.00 0.00 47 1083.8
20260507105518 20 238 4.8 12.9 0.00 0.00 0.00 47 1083.8
20260507105503 20 243 4.8 12.9 0.00 0.00 0.00 47 1083.6
20260507105417 20 248 4.8 12.9 0.00 0.00 0.00 47 1083.6
20260507105218 20 254 6.4 12.9 0.00 0.00 0.00 46 1083.9
20260507105103 20 247 6.4 12.9 0.00 0.00 0.00 46 1083.9
20260507104903 20 243 4.8 12.9 0.00 0.00 0.00 46 1083.9
20260507104803 20 236 4.8 12.9 0.00 0.00 0.00 46 1083.9
20260507104703 21 221 4.8 12.9 0.00 0.00 0.00 46 1083.9
20260507104603 21 182 4.8 12.9 0.00 0.00 0.00 45 1083.6
20260507104503 21 155 6.4 16.1 0.00 0.00 0.00 45 1083.8
20260507104417 21 141 6.4 16.1 0.00 0.00 0.00 45 1083.8
20260507104403 21 139 4.8 16.1 0.00 0.00 0.00 45 1083.7
20260507104303 21 136 6.4 17.7 0.00 0.00 0.00 47 1083.8
20260507104218 21 144 6.4 17.7 0.00 0.00 0.00 47 1083.8
20260507104103 21 147 8.0 17.7 0.00 0.00 0.00 47 1083.7
20260507103903 21 148 8.0 17.7 0.00 0.00 0.00 48 1083.7
20260507103803 21 157 8.0 17.7 0.00 0.00 0.00 48 1083.6
20260507103703 20 160 8.0 17.7 0.00 0.00 0.00 47 1083.8
20260507103603 20 170 8.0 17.7 0.00 0.00 0.00 48 1084.0
20260507103503 20 179 8.0 17.7 0.00 0.00 0.00 48 1083.7
20260507103403 20 186 8.0 17.7 0.00 0.00 0.00 46 1083.7
20260507103303 20 199 6.4 17.7 0.00 0.00 0.00 47 1083.7
20260507103203 20 200 6.4 16.1 0.00 0.00 0.00 47 1083.9
20260507103103 20 204 6.4 14.5 0.00 0.00 0.00 47 1083.7
20260507103003 20 202 6.4 14.5 0.00 0.00 0.00 47 1083.8
20260507102903 20 200 4.8 14.5 0.00 0.00 0.00 49 1083.8
20260507102803 20 197 4.8 12.9 0.00 0.00 0.00 48 1083.5
20260507102717 20 204 4.8 12.9 0.00 0.00 0.00 47 1083.5
20260507102703 20 205 4.8 12.9 0.00 0.00 0.00 47 1083.7
20260507102603 20 193 4.8 11.3 0.00 0.00 0.00 48 1083.8
20260507102518 20 193 4.8 11.3 0.00 0.00 0.00 48 1083.8
20260507102403 20 191 4.8 14.5 0.00 0.00 0.00 48 1083.8
20260507102218 20 189 4.8 14.5 0.00 0.00 0.00 48 1083.8
20260507102203 20 188 4.8 14.5 0.00 0.00 0.00 48 1083.5
20260507102103 20 185 4.8 14.5 0.00 0.00 0.00 50 1083.7
20260507101903 20 196 4.8 14.5 0.00 0.00 0.00 52 1083.7
20260507101818 20 201 3.2 14.5 0.00 0.00 0.00 50 1083.7
20260507101803 20 202 3.2 14.5 0.00 0.00 0.00 50 1083.5
20260507101703 19 206 3.2 14.5 0.00 0.00 0.00 50 1083.8
20260507101503 19 218 3.2 14.5 0.00 0.00 0.00 50 1083.5
20260507101403 19 218 3.2 14.5 0.00 0.00 0.00 52 1083.6
20260507101317 19 218 1.6 9.7 0.00 0.00 0.00 52 1083.6
20260507101303 18 216 1.6 9.7 0.00 0.00 0.00 54 1083.7
20260507101203 18 213 1.6 6.4 0.00 0.00 0.00 54 1083.7
20260507101116 18 219 1.6 9.7 0.00 0.00 0.00 54 1083.7
20260507101017 18 211 3.2 11.3 0.00 0.00 0.00 54 1083.8
20260507101003 18 212 3.2 11.3 0.00 0.00 0.00 54 1083.6
20260507100703 18 210 4.8 12.9 0.00 0.00 0.00 54 1083.8
20260507100617 18 214 4.8 12.9 0.00 0.00 0.00 54 1083.8
20260507100603 18 215 4.8 12.9 0.00 0.00 0.00 54 1083.5
20260507100503 18 217 4.8 12.9 0.00 0.00 0.00 53 1083.8
20260507100303 18 221 6.4 16.1 0.00 0.00 0.00 53 1083.8
20260507100203 18 217 6.4 16.1 0.00 0.00 0.00 54 1083.9
20260507100103 18 213 6.4 16.1 0.00 0.00 0.00 53 1083.8
20260507100003 18 217 6.4 16.1 0.00 0.00 0.00 55 1083.8
20260507095917 18 221 6.4 16.1 0.00 0.00 0.00 55 1083.8
20260507095903 18 222 6.4 16.1 0.00 0.00 0.00 55 1083.4
20260507095803 18 230 6.4 16.1 0.00 0.00 0.00 54 1083.7
20260507095603 18 250 6.4 16.1 0.00 0.00 0.00 53 1083.6
20260507095503 18 254 6.4 16.1 0.00 0.00 0.00 54 1083.7
20260507095416 18 255 6.4 16.1 0.00 0.00 0.00 54 1083.7
20260507095403 18 252 6.4 16.1 0.00 0.00 0.00 54 1083.6
20260507095305 18 256 6.4 16.1 0.00 0.00 0.00 54 1084.0
20260507095103 18 268 6.4 17.7 0.00 0.00 0.00 54 1083.6
20260507095003 18 270 8.0 17.7 0.00 0.00 0.00 54 1083.7
20260507094903 18 265 8.0 17.7 0.00 0.00 0.00 55 1083.7
20260507094803 18 254 8.0 17.7 0.00 0.00 0.00 54 1083.8
20260507094716 18 240 8.0 17.7 0.00 0.00 0.00 55 1083.8
20260507094703 18 238 8.0 17.7 0.00 0.00 0.00 55 1083.7
20260507094603 18 229 8.0 17.7 0.00 0.00 0.00 55 1083.7
20260507094403 18 223 6.4 17.7 0.00 0.00 0.00 55 1083.6
20260507094303 18 222 6.4 17.7 0.00 0.00 0.00 55 1083.5
20260507094203 18 213 6.4 17.7 0.00 0.00 0.00 54 1083.7
20260507094103 18 206 6.4 17.7 0.00 0.00 0.00 55 1083.5
20260507094003 18 194 4.8 14.5 0.00 0.00 0.00 56 1083.6
20260507093903 18 198 4.8 14.5 0.00 0.00 0.00 55 1083.6
20260507093818 18 211 4.8 14.5 0.00 0.00 0.00 55 1083.6
20260507093803 18 214 4.8 14.5 0.00 0.00 0.00 55 1083.7
20260507093703 18 224 4.8 11.3 0.00 0.00 0.00 55 1083.5
20260507093503 17 218 4.8 11.3 0.00 0.00 0.00 55 1083.6
20260507093418 18 212 4.8 11.3 0.00 0.00 0.00 56 1083.6
20260507093403 18 211 4.8 11.3 0.00 0.00 0.00 56 1083.5
20260507093303 17 206 4.8 11.3 0.00 0.00 0.00 56 1083.5
20260507093217 17 210 4.8 11.3 0.00 0.00 0.00 56 1083.5
20260507093103 17 216 4.8 11.3 0.00 0.00 0.00 55 1083.8
20260507092903 18 214 4.8 11.3 0.00 0.00 0.00 55 1083.5
20260507092803 18 204 4.8 11.3 0.00 0.00 0.00 55 1083.5
20260507092703 18 195 4.8 11.3 0.00 0.00 0.00 55 1083.5
20260507092603 18 184 4.8 12.9 0.00 0.00 0.00 54 1083.6
20260507092517 18 175 4.8 12.9 0.00 0.00 0.00 54 1083.6
20260507092503 18 171 4.8 12.9 0.00 0.00 0.00 54 1083.5
20260507092403 18 158 4.8 12.9 0.00 0.00 0.00 53 1083.6
20260507092203 18 164 4.8 12.9 0.00 0.00 0.00 52 1083.5
20260507092103 19 165 4.8 12.9 0.00 0.00 0.00 52 1083.5
20260507092003 19 168 4.8 12.9 0.00 0.00 0.00 51 1083.5
20260507091903 19 165 6.4 17.7 0.00 0.00 0.00 51 1083.6
20260507091803 19 165 6.4 17.7 0.00 0.00 0.00 53 1083.4
20260507091703 19 166 6.4 17.7 0.00 0.00 0.00 54 1083.4
20260507091603 19 177 6.4 17.7 0.00 0.00 0.00 54 1083.5
20260507091503 18 188 6.4 17.7 0.00 0.00 0.00 53 1083.1
20260507091403 18 194 6.4 17.7 0.00 0.00 0.00 53 1083.5
20260507091303 19 197 6.4 17.7 0.00 0.00 0.00 50 1083.6
20260507091203 19 205 6.4 17.7 0.00 0.00 0.00 51 1083.5
20260507091103 19 210 6.4 17.7 0.00 0.00 0.00 50 1083.5
20260507091003 20 215 6.4 17.7 0.00 0.00 0.00 50 1083.5
20260507090903 20 232 6.4 16.1 0.00 0.00 0.00 52 1083.4
20260507090803 19 237 6.4 16.1 0.00 0.00 0.00 52 1083.5
20260507090703 19 236 6.4 16.1 0.00 0.00 0.00 52 1083.3
20260507090617 19 236 6.4 16.1 0.00 0.00 0.00 53 1083.3
20260507090603 19 236 6.4 16.1 0.00 0.00 0.00 53 1083.5
20260507090517 19 237 4.8 16.1 0.00 0.00 0.00 53 1083.5
20260507090503 19 237 6.4 16.1 0.00 0.00 0.00 53 1083.3
20260507090203 19 239 6.4 16.1 0.00 0.00 0.00 53 1083.5
20260507090003 19 218 6.4 16.1 0.00 0.00 0.00 54 1083.3
20260507085903 19 198 6.4 16.1 0.00 0.00 0.00 55 1083.2
20260507085803 19 187 6.4 16.1 0.00 0.00 0.00 54 1083.3
20260507085703 19 189 6.4 16.1 0.00 0.00 0.00 54 1083.5
20260507085617 19 184 4.8 16.1 0.00 0.00 0.00 53 1083.5
20260507085603 19 186 6.4 16.1 0.00 0.00 0.00 53 1083.4
20260507085503 19 173 6.4 16.1 0.00 0.00 0.00 53 1083.4
20260507085306 18 161 6.4 16.1 0.00 0.00 0.00 57 1083.3
20260507085203 18 165 6.4 16.1 0.00 0.00 0.00 58 1083.2
20260507085103 18 172 6.4 16.1 0.00 0.00 0.00 58 1083.3
20260507085003 18 178 6.4 14.5 0.00 0.00 0.00 58 1083.4
20260507084903 17 186 6.4 16.1 0.00 0.00 0.00 57 1083.2
20260507084803 17 187 6.4 16.1 0.00 0.00 0.00 57 1083.2
20260507084703 18 188 6.4 16.1 0.00 0.00 0.00 56 1083.2
20260507084603 18 197 6.4 16.1 0.00 0.00 0.00 56 1083.5
20260507084503 18 207 6.4 16.1 0.00 0.00 0.00 56 1083.2
20260507084403 18 210 6.4 16.1 0.00 0.00 0.00 55 1083.4
20260507084303 18 217 6.4 16.1 0.00 0.00 0.00 56 1083.3
20260507084203 18 219 4.8 16.1 0.00 0.00 0.00 56 1083.3
20260507084103 18 221 4.8 16.1 0.00 0.00 0.00 57 1083.3
20260507084003 18 235 4.8 16.1 0.00 0.00 0.00 58 1083.4
20260507083917 18 238 4.8 14.5 0.00 0.00 0.00 58 1083.4
20260507083903 18 239 4.8 14.5 0.00 0.00 0.00 58 1083.0
20260507083803 17 250 4.8 14.5 0.00 0.00 0.00 59 1083.1
20260507083617 17 252 4.8 17.7 0.00 0.00 0.00 60 1083.2
20260507083603 17 252 4.8 17.7 0.00 0.00 0.00 60 1083.4
20260507083503 17 250 4.8 17.7 0.00 0.00 0.00 58 1083.1
20260507083303 17 241 6.4 17.7 0.00 0.00 0.00 60 1083.2
20260507083203 17 240 6.4 17.7 0.00 0.00 0.00 59 1083.3
20260507083118 17 238 6.4 17.7 0.00 0.00 0.00 58 1083.3
20260507083103 17 238 6.4 17.7 0.00 0.00 0.00 58 1083.1
20260507083003 17 236 6.4 17.7 0.00 0.00 0.00 59 1083.0
20260507082803 17 239 6.4 17.7 0.00 0.00 0.00 59 1083.1
20260507082703 17 234 6.4 16.1 0.00 0.00 0.00 59 1083.0
20260507082616 17 233 6.4 14.5 0.00 0.00 0.00 61 1083.0
20260507082603 17 232 6.4 14.5 0.00 0.00 0.00 61 1083.0
20260507082503 17 234 6.4 14.5 0.00 0.00 0.00 62 1083.0
20260507082306 16 238 6.4 16.1 0.00 0.00 0.00 63 1083.1
20260507082203 16 236 6.4 16.1 0.00 0.00 0.00 63 1083.2
20260507082103 16 237 6.4 16.1 0.00 0.00 0.00 63 1083.0
20260507082003 16 243 6.4 16.1 0.00 0.00 0.00 62 1083.0
20260507081917 16 244 6.4 16.1 0.00 0.00 0.00 62 1083.0
20260507081903 16 243 6.4 16.1 0.00 0.00 0.00 62 1083.2
20260507081803 16 242 6.4 16.1 0.00 0.00 0.00 62 1083.0
20260507081718 16 243 6.4 16.1 0.00 0.00 0.00 62 1083.0
20260507081603 16 245 6.4 16.1 0.00 0.00 0.00 62 1083.0
20260507081418 16 230 4.8 12.9 0.00 0.00 0.00 63 1082.8
20260507081403 16 228 4.8 12.9 0.00 0.00 0.00 63 1082.7
20260507081303 16 229 4.8 12.9 0.00 0.00 0.00 63 1083.0
20260507081117 16 234 4.8 12.9 0.00 0.00 0.00 64 1083.0
20260507081103 16 234 4.8 12.9 0.00 0.00 0.00 64 1082.8
20260507081003 15 221 4.8 12.9 0.00 0.00 0.00 65 1083.1
20260507080803 15 211 4.8 12.9 0.00 0.00 0.00 65 1083.0
20260507080703 15 211 4.8 12.9 0.00 0.00 0.00 64 1083.0
20260507080616 15 206 4.8 12.9 0.00 0.00 0.00 64 1083.0
20260507080603 15 205 4.8 12.9 0.00 0.00 0.00 65 1083.2
20260507080517 15 202 4.8 12.9 0.00 0.00 0.00 65 1083.2
20260507080503 15 203 4.8 12.9 0.00 0.00 0.00 65 1083.2
20260507080203 15 212 4.8 11.3 0.00 0.00 0.00 65 1082.7
20260507080103 15 213 4.8 11.3 0.00 0.00 0.00 66 1083.0
20260507080003 15 220 4.8 11.3 0.00 0.00 0.00 65 1082.8
20260507075916 15 221 4.8 11.3 0.00 0.00 0.00 65 1082.8
20260507075903 15 220 4.8 11.3 0.00 0.00 0.00 65 1083.1
20260507075803 15 217 4.8 12.9 0.00 0.00 0.00 64 1083.0
20260507075616 15 204 4.8 12.9 0.00 0.00 0.00 64 1083.0
20260507075603 15 204 4.8 12.9 0.00 0.00 0.00 64 1082.8
20260507075517 15 203 6.4 14.5 0.00 0.00 0.00 63 1082.8
20260507075503 15 203 6.4 14.5 0.00 0.00 0.00 63 1083.0
20260507075203 16 197 4.8 14.5 0.00 0.00 0.00 63 1083.1
20260507075103 16 194 4.8 14.5 0.00 0.00 0.00 63 1082.8
20260507075003 16 186 4.8 14.5 0.00 0.00 0.00 63 1082.7
20260507074916 16 186 4.8 14.5 0.00 0.00 0.00 62 1082.7
20260507074903 16 186 4.8 14.5 0.00 0.00 0.00 62 1082.8
20260507074803 16 187 3.2 14.5 0.00 0.00 0.00 61 1082.7
20260507074718 16 188 3.2 14.5 0.00 0.00 0.00 61 1082.7
20260507074603 17 195 3.2 14.5 0.00 0.00 0.00 62 1083.0
20260507074403 17 181 3.2 11.3 0.00 0.00 0.00 63 1082.8
20260507074303 17 197 3.2 12.9 0.00 0.00 0.00 62 1082.7
20260507074216 17 198 3.2 12.9 0.00 0.00 0.00 62 1082.7
20260507074203 17 196 3.2 12.9 0.00 0.00 0.00 62 1082.6
20260507074103 17 193 4.8 16.1 0.00 0.00 0.00 62 1082.7
20260507074018 16 192 6.4 17.7 0.00 0.00 0.00 63 1082.7
20260507073903 16 197 6.4 17.7 0.00 0.00 0.00 63 1082.5
20260507073703 17 203 6.4 17.7 0.00 0.00 0.00 62 1082.8
20260507073616 17 203 6.4 17.7 0.00 0.00 0.00 61 1082.8
20260507073603 17 202 6.4 17.7 0.00 0.00 0.00 61 1082.8
20260507073503 17 203 6.4 17.7 0.00 0.00 0.00 61 1082.5
20260507073303 17 201 6.4 17.7 0.00 0.00 0.00 61 1082.8
20260507073216 17 202 6.4 17.7 0.00 0.00 0.00 61 1082.8
20260507073203 17 202 6.4 17.7 0.00 0.00 0.00 61 1082.5
20260507073103 17 207 6.4 17.7 0.00 0.00 0.00 61 1082.7
20260507072903 17 207 4.8 12.9 0.00 0.00 0.00 64 1082.6
20260507072817 16 204 4.8 14.5 0.00 0.00 0.00 64 1082.6
20260507072803 16 203 4.8 14.5 0.00 0.00 0.00 64 1082.6
20260507072703 16 204 4.8 14.5 0.00 0.00 0.00 63 1082.6
20260507072503 16 212 4.8 14.5 0.00 0.00 0.00 65 1083.0
20260507072403 16 215 4.8 14.5 0.00 0.00 0.00 64 1082.7
20260507072306 16 220 4.8 14.5 0.00 0.00 0.00 64 1082.7
20260507072203 16 221 4.8 14.5 0.00 0.00 0.00 64 1082.8
20260507072103 16 215 4.8 14.5 0.00 0.00 0.00 65 1082.7
20260507072003 16 216 4.8 14.5 0.00 0.00 0.00 65 1082.7
20260507071903 16 214 4.8 14.5 0.00 0.00 0.00 66 1082.7
20260507071803 16 220 4.8 14.5 0.00 0.00 0.00 67 1082.4
20260507071717 16 220 4.8 14.5 0.00 0.00 0.00 67 1082.4
20260507071703 16 218 4.8 14.5 0.00 0.00 0.00 67 1082.6
20260507071603 15 206 6.4 14.5 0.00 0.00 0.00 68 1082.5
20260507071403 15 199 6.4 14.5 0.00 0.00 0.00 68 1082.5
20260507071303 15 197 6.4 14.5 0.00 0.00 0.00 68 1082.4
20260507071216 15 195 6.4 14.5 0.00 0.00 0.00 68 1082.4
20260507071203 15 195 6.4 14.5 0.00 0.00 0.00 68 1082.4
20260507071117 15 196 6.4 14.5 0.00 0.00 0.00 68 1082.4
20260507071103 15 198 6.4 14.5 0.00 0.00 0.00 68 1082.4
20260507070803 15 208 6.4 16.1 0.00 0.00 0.00 67 1082.6
20260507070703 15 202 6.4 16.1 0.00 0.00 0.00 68 1082.6
20260507070603 16 207 6.4 16.1 0.00 0.00 0.00 67 1082.5
20260507070503 16 204 6.4 16.1 0.00 0.00 0.00 68 1082.4
20260507070403 15 205 6.4 16.1 0.00 0.00 0.00 68 1082.2
20260507070303 15 200 6.4 16.1 0.00 0.00 0.00 69 1082.3
20260507070203 15 203 6.4 16.1 0.00 0.00 0.00 70 1082.2
20260507070018 15 200 8.0 16.1 0.00 0.00 0.00 69 1082.3
20260507070005 15 199 8.0 16.1 0.00 0.00 0.00 69 1082.3
20260507065916 15 196 8.0 16.1 0.00 0.00 0.00 70 1082.3
20260507065903 15 193 8.0 16.1 0.00 0.00 0.00 70 1082.3
20260507065603 15 200 6.4 14.5 0.00 0.00 0.00 72 1082.7
20260507065503 14 202 8.0 14.5 0.00 0.00 0.00 72 1082.3
20260507065403 14 201 8.0 14.5 0.00 0.00 0.00 72 1082.3
20260507065306 14 205 6.4 14.5 0.00 0.00 0.00 72 1082.3
20260507065203 14 204 6.4 14.5 0.00 0.00 0.00 72 1082.4
20260507065103 14 205 6.4 14.5 0.00 0.00 0.00 73 1082.4
20260507065003 14 210 6.4 14.5 0.00 0.00 0.00 73 1082.5
20260507064903 14 215 6.4 14.5 0.00 0.00 0.00 73 1082.6
20260507064803 14 216 4.8 14.5 0.00 0.00 0.00 73 1082.5
20260507064703 14 216 4.8 14.5 0.00 0.00 0.00 73 1082.5
20260507064603 14 219 4.8 14.5 0.00 0.00 0.00 73 1082.5
20260507064503 14 217 4.8 14.5 0.00 0.00 0.00 73 1082.4
20260507064403 14 218 4.8 14.5 0.00 0.00 0.00 73 1082.3
20260507064318 14 221 4.8 14.5 0.00 0.00 0.00 73 1082.3
20260507064303 14 222 4.8 14.5 0.00 0.00 0.00 73 1082.4
20260507064216 14 225 4.8 14.5 0.00 0.00 0.00 73 1082.4
20260507064203 14 224 4.8 14.5 0.00 0.00 0.00 73 1082.4
20260507063903 14 221 4.8 14.5 0.00 0.00 0.00 74 1082.7
20260507063817 14 218 4.8 14.5 0.00 0.00 0.00 74 1082.7
20260507063803 14 216 6.4 14.5 0.00 0.00 0.00 74 1082.4
20260507063703 14 213 6.4 14.5 0.00 0.00 0.00 74 1082.4
20260507063503 14 216 4.8 14.5 0.00 0.00 0.00 73 1082.5
20260507063403 14 222 4.8 14.5 0.00 0.00 0.00 73 1082.6
20260507063303 14 226 4.8 14.5 0.00 0.00 0.00 74 1082.3
20260507063203 14 223 4.8 14.5 0.00 0.00 0.00 74 1082.4
20260507063103 14 224 4.8 14.5 0.00 0.00 0.00 73 1082.3
20260507063003 14 220 4.8 14.5 0.00 0.00 0.00 73 1082.2
20260507062903 14 211 4.8 14.5 0.00 0.00 0.00 74 1082.2
20260507062803 14 211 4.8 14.5 0.00 0.00 0.00 74 1082.2
20260507062703 14 209 4.8 14.5 0.00 0.00 0.00 75 1082.2
20260507062603 14 210 4.8 14.5 0.00 0.00 0.00 75 1082.0
20260507062503 14 213 4.8 14.5 0.00 0.00 0.00 75 1082.1
20260507062403 14 211 6.4 14.5 0.00 0.00 0.00 75 1082.1
20260507062318 14 209 4.8 14.5 0.00 0.00 0.00 75 1082.1
20260507062306 14 208 4.8 14.5 0.00 0.00 0.00 75 1082.1
20260507062203 14 212 4.8 14.5 0.00 0.00 0.00 75 1082.1
20260507062017 14 219 6.4 14.5 0.00 0.00 0.00 75 1082.1
20260507062003 14 220 6.4 14.5 0.00 0.00 0.00 75 1082.0
20260507061903 14 230 6.4 14.5 0.00 0.00 0.00 75 1082.0
20260507061703 14 245 4.8 14.5 0.00 0.00 0.00 75 1081.9
20260507061618 14 249 6.4 16.1 0.00 0.00 0.00 75 1081.9
20260507061603 14 249 6.4 16.1 0.00 0.00 0.00 75 1082.1
20260507061503 14 251 4.8 16.1 0.00 0.00 0.00 76 1082.1
20260507061303 14 248 4.8 16.1 0.00 0.00 0.00 76 1082.0
20260507061203 13 241 4.8 16.1 0.00 0.00 0.00 76 1082.0
20260507061103 13 239 4.8 16.1 0.00 0.00 0.00 76 1082.1
20260507061003 13 236 4.8 16.1 0.00 0.00 0.00 76 1081.8
20260507060903 13 225 4.8 16.1 0.00 0.00 0.00 76 1082.0
20260507060803 13 224 4.8 16.1 0.00 0.00 0.00 76 1082.1
20260507060703 13 216 3.2 16.1 0.00 0.00 0.00 77 1082.0
20260507060603 13 206 3.2 9.7 0.00 0.00 0.00 78 1081.9
20260507060503 13 200 3.2 9.7 0.00 0.00 0.00 78 1081.8
20260507060403 13 204 3.2 11.3 0.00 0.00 0.00 79 1081.9
20260507060303 13 208 3.2 11.3 0.00 0.00 0.00 79 1081.9
20260507060203 13 210 3.2 11.3 0.00 0.00 0.00 80 1082.1
20260507060117 13 211 3.2 11.3 0.00 0.00 0.00 80 1082.1
20260507060003 13 211 3.2 11.3 0.00 0.00 0.00 80 1081.9
20260507055803 13 212 3.2 11.3 0.00 0.00 0.00 80 1081.9
20260507055703 13 211 3.2 11.3 0.00 0.00 0.00 79 1081.9
20260507055603 13 211 3.2 11.3 0.00 0.00 0.00 79 1081.9
20260507055503 13 215 3.2 11.3 0.00 0.00 0.00 79 1082.1
20260507055403 13 215 4.8 11.3 0.00 0.00 0.00 80 1082.0
20260507055305 13 215 4.8 11.3 0.00 0.00 0.00 80 1082.0
20260507055218 13 214 4.8 11.3 0.00 0.00 0.00 80 1082.0
20260507055203 13 215 4.8 11.3 0.00 0.00 0.00 80 1082.0
20260507055103 13 218 4.8 11.3 0.00 0.00 0.00 81 1082.0
20260507054903 13 222 3.2 11.3 0.00 0.00 0.00 81 1082.1
20260507054803 13 222 3.2 11.3 0.00 0.00 0.00 81 1081.8
20260507054703 13 227 3.2 11.3 0.00 0.00 0.00 81 1082.0
20260507054603 13 227 3.2 11.3 0.00 0.00 0.00 81 1081.9
20260507054503 13 230 3.2 11.3 0.00 0.00 0.00 82 1081.9
20260507054403 13 231 1.6 11.3 0.00 0.00 0.00 82 1081.7
20260507054303 12 227 1.6 6.4 0.00 0.00 0.00 82 1081.8
20260507054203 12 224 1.6 6.4 0.00 0.00 0.00 82 1081.6
20260507054103 12 219 3.2 6.4 0.00 0.00 0.00 82 1081.7
20260507054003 12 219 3.2 9.7 0.00 0.00 0.00 82 1081.9
20260507053903 12 219 3.2 9.7 0.00 0.00 0.00 82 1081.9
20260507053803 12 214 3.2 9.7 0.00 0.00 0.00 82 1081.8
20260507053703 12 209 3.2 9.7 0.00 0.00 0.00 82 1081.9
20260507053618 12 210 3.2 9.7 0.00 0.00 0.00 82 1081.9
20260507053603 12 212 3.2 9.7 0.00 0.00 0.00 82 1081.5
20260507053503 12 211 3.2 9.7 0.00 0.00 0.00 82 1081.6
20260507053303 12 206 3.2 9.7 0.00 0.00 0.00 82 1081.7
20260507053203 12 200 3.2 11.3 0.00 0.00 0.00 82 1081.6
20260507053103 12 202 3.2 11.3 0.00 0.00 0.00 82 1081.7
20260507053017 12 199 3.2 11.3 0.00 0.00 0.00 82 1081.7
20260507053003 12 198 4.8 11.3 0.00 0.00 0.00 82 1081.7
20260507052917 12 196 4.8 11.3 0.00 0.00 0.00 82 1081.7
20260507052903 12 196 4.8 11.3 0.00 0.00 0.00 82 1081.8
20260507052717 12 201 4.8 11.3 0.00 0.00 0.00 82 1081.9
20260507052603 13 203 4.8 11.3 0.00 0.00 0.00 82 1081.8
20260507052417 13 203 4.8 11.3 0.00 0.00 0.00 82 1081.5
20260507052403 13 203 4.8 11.3 0.00 0.00 0.00 82 1081.5
20260507052306 13 205 4.8 11.3 0.00 0.00 0.00 81 1081.7
20260507052103 13 206 3.2 11.3 0.00 0.00 0.00 81 1081.4
20260507052003 13 208 3.2 11.3 0.00 0.00 0.00 81 1081.5
20260507051903 13 208 3.2 11.3 0.00 0.00 0.00 81 1081.7
20260507051803 13 208 3.2 11.3 0.00 0.00 0.00 81 1081.5
20260507051703 13 208 3.2 11.3 0.00 0.00 0.00 81 1081.3
20260507051603 13 209 3.2 11.3 0.00 0.00 0.00 81 1081.5
20260507051503 13 208 3.2 11.3 0.00 0.00 0.00 81 1081.5
20260507051417 13 213 3.2 11.3 0.00 0.00 0.00 81 1081.5
20260507051403 13 215 3.2 11.3 0.00 0.00 0.00 81 1081.6
20260507051303 13 218 3.2 6.4 0.00 0.00 0.00 81 1081.6
20260507051103 13 224 3.2 9.7 0.00 0.00 0.00 81 1081.6
20260507051003 13 225 3.2 9.7 0.00 0.00 0.00 81 1081.3
20260507050903 13 232 3.2 9.7 0.00 0.00 0.00 81 1081.4
20260507050803 13 238 3.2 9.7 0.00 0.00 0.00 81 1081.5
20260507050703 13 244 3.2 9.7 0.00 0.00 0.00 81 1081.4
20260507050603 13 239 3.2 9.7 0.00 0.00 0.00 81 1081.5
20260507050503 13 236 3.2 9.7 0.00 0.00 0.00 81 1081.3
20260507050403 13 231 4.8 9.7 0.00 0.00 0.00 81 1081.2
20260507050303 13 230 4.8 9.7 0.00 0.00 0.00 81 1081.5
20260507050203 13 233 4.8 11.3 0.00 0.00 0.00 81 1081.6
20260507050103 13 235 4.8 12.9 0.00 0.00 0.00 81 1081.3
20260507050017 13 235 4.8 12.9 0.00 0.00 0.00 81 1081.3
20260507050003 13 235 4.8 12.9 0.00 0.00 0.00 80 1081.6
20260507045917 13 235 4.8 12.9 0.00 0.00 0.00 80 1081.6
20260507045903 13 235 4.8 12.9 0.00 0.00 0.00 80 1081.2
20260507045617 13 228 3.2 12.9 0.00 0.00 0.00 80 1081.5
20260507045603 13 227 3.2 12.9 0.00 0.00 0.00 80 1081.4
20260507045503 13 227 3.2 12.9 0.00 0.00 0.00 80 1081.5
20260507045306 13 219 3.2 12.9 0.00 0.00 0.00 80 1081.4
20260507045203 13 215 3.2 12.9 0.00 0.00 0.00 80 1081.3
20260507045103 13 212 1.6 4.8 0.00 0.00 0.00 81 1081.3
20260507045003 13 215 1.6 4.8 0.00 0.00 0.00 81 1081.3
20260507044903 13 216 1.6 4.8 0.00 0.00 0.00 81 1081.3
20260507044803 13 206 1.6 4.8 0.00 0.00 0.00 82 1081.3
20260507044703 13 204 1.6 4.8 0.00 0.00 0.00 83 1081.2
20260507044603 13 212 1.6 4.8 0.00 0.00 0.00 83 1081.2
20260507044503 13 215 1.6 4.8 0.00 0.00 0.00 83 1081.4
20260507044403 13 221 1.6 4.8 0.00 0.00 0.00 84 1081.3
20260507044303 13 223 1.6 4.8 0.00 0.00 0.00 84 1081.3
20260507044217 13 219 1.6 4.8 0.00 0.00 0.00 84 1081.3
20260507044203 13 217 1.6 4.8 0.00 0.00 0.00 84 1081.2
20260507044103 13 214 1.6 4.8 0.00 0.00 0.00 85 1081.1
20260507044017 13 214 1.6 4.8 0.00 0.00 0.00 86 1081.1
20260507043903 12 210 1.6 4.8 0.00 0.00 0.00 86 1081.3
20260507043818 12 210 1.6 4.8 0.00 0.00 0.00 86 1081.3
20260507043717 12 211 1.6 4.8 0.00 0.00 0.00 86 1081.2
20260507043703 12 212 1.6 4.8 0.00 0.00 0.00 85 1081.3
20260507043403 12 223 0.0 3.2 0.00 0.00 0.00 86 1081.1
20260507043303 12 233 0.0 3.2 0.00 0.00 0.00 86 1081.1
20260507043217 12 239 0.0 3.2 0.00 0.00 0.00 86 1081.1
20260507043203 12 238 0.0 3.2 0.00 0.00 0.00 86 1081.1
20260507043103 12 249 0.0 1.6 0.00 0.00 0.00 86 1080.8
20260507042903 12 249 0.0 1.6 0.00 0.00 0.00 87 1081.1
20260507042803 12 249 0.0 1.6 0.00 0.00 0.00 87 1081.1
20260507042703 12 248 0.0 1.6 0.00 0.00 0.00 87 1081.2
20260507042603 12 248 0.0 1.6 0.00 0.00 0.00 87 1081.2
20260507042503 12 251 0.0 3.2 0.00 0.00 0.00 87 1080.8
20260507042403 12 257 1.6 3.2 0.00 0.00 0.00 87 1081.1
20260507042306 11 259 1.6 3.2 0.00 0.00 0.00 87 1080.8
20260507042203 11 256 1.6 3.2 0.00 0.00 0.00 88 1080.9
20260507042103 11 257 1.6 3.2 0.00 0.00 0.00 87 1080.9
20260507042003 11 258 1.6 3.2 0.00 0.00 0.00 88 1080.6
20260507041917 11 258 1.6 3.2 0.00 0.00 0.00 88 1080.6
20260507041903 11 258 1.6 3.2 0.00 0.00 0.00 88 1080.9
20260507041818 11 258 1.6 3.2 0.00 0.00 0.00 88 1080.9
20260507041803 11 258 1.6 3.2 0.00 0.00 0.00 88 1081.1
20260507041503 11 261 0.0 3.2 0.00 0.00 0.00 88 1080.7
20260507041403 11 253 0.0 3.2 0.00 0.00 0.00 88 1080.9
20260507041303 11 240 0.0 3.2 0.00 0.00 0.00 88 1080.7
20260507041203 11 215 0.0 4.8 0.00 0.00 0.00 88 1080.9
20260507041103 11 205 0.0 4.8 0.00 0.00 0.00 89 1080.7
20260507041003 11 205 0.0 4.8 0.00 0.00 0.00 89 1080.7
20260507040903 11 210 1.6 4.8 0.00 0.00 0.00 89 1080.7
20260507040803 11 213 1.6 4.8 0.00 0.00 0.00 89 1080.8
20260507040717 11 218 1.6 4.8 0.00 0.00 0.00 89 1080.8
20260507040703 11 218 1.6 4.8 0.00 0.00 0.00 89 1080.9
20260507040603 11 217 1.6 4.8 0.00 0.00 0.00 89 1080.7
20260507040403 11 224 1.6 4.8 0.00 0.00 0.00 89 1080.7
20260507040303 11 220 1.6 4.8 0.00 0.00 0.00 89 1080.6
20260507040203 11 214 1.6 4.8 0.00 0.00 0.00 89 1080.6
20260507040003 11 216 1.6 4.8 0.00 0.00 0.00 89 1080.8
20260507035917 11 215 1.6 4.8 0.00 0.00 0.00 89 1080.8
20260507035903 11 213 1.6 4.8 0.00 0.00 0.00 89 1080.7
20260507035803 11 212 1.6 4.8 0.00 0.00 0.00 89 1080.6
20260507035603 10 204 0.0 4.8 0.00 0.00 0.00 89 1080.8
20260507035503 10 189 0.0 4.8 0.00 0.00 0.00 89 1080.7
20260507035403 10 182 0.0 4.8 0.00 0.00 0.00 89 1080.7
20260507035316 10 183 0.0 4.8 0.00 0.00 0.00 89 1080.7
20260507035306 10 184 0.0 4.8 0.00 0.00 0.00 89 1080.7
20260507035203 10 202 0.0 4.8 0.00 0.00 0.00 88 1080.7
20260507035003 10 0 0.0 0.0 0.00 0.00 0.00 88 1080.6
20260507034903 10 0 0.0 0.0 0.00 0.00 0.00 88 1080.5
20260507034803 10 0 0.0 0.0 0.00 0.00 0.00 89 1080.6
20260507034703 10 0 0.0 0.0 0.00 0.00 0.00 89 1080.5
20260507034603 10 0 0.0 0.0 0.00 0.00 0.00 88 1080.5
20260507034503 10 0 0.0 0.0 0.00 0.00 0.00 88 1080.4
20260507034404 10 0 0.0 0.0 0.00 0.00 0.00 89 1080.6
20260507034303 10 248 0.0 1.6 0.00 0.00 0.00 89 1080.5
20260507034217 10 255 0.0 3.2 0.00 0.00 0.00 88 1080.5
20260507034203 10 252 0.0 3.2 0.00 0.00 0.00 88 1080.4
20260507034103 10 249 0.0 3.2 0.00 0.00 0.00 88 1080.3
20260507033903 10 260 0.0 3.2 0.00 0.00 0.00 88 1080.3
20260507033803 10 260 0.0 3.2 0.00 0.00 0.00 88 1080.5
20260507033703 10 260 0.0 3.2 0.00 0.00 0.00 88 1080.3
20260507033617 10 260 0.0 3.2 0.00 0.00 0.00 88 1080.3
20260507033603 10 260 0.0 3.2 0.00 0.00 0.00 89 1080.4
20260507033503 10 260 0.0 3.2 0.00 0.00 0.00 88 1080.3
20260507033303 10 261 0.0 3.2 0.00 0.00 0.00 89 1080.3
20260507033217 10 264 0.0 1.6 0.00 0.00 0.00 89 1080.3
20260507033203 10 269 0.0 1.6 0.00 0.00 0.00 88 1080.4
20260507033103 10 287 0.0 1.6 0.00 0.00 0.00 88 1080.3
20260507033016 10 299 0.0 3.2 0.00 0.00 0.00 88 1080.3
20260507032903 10 315 0.0 3.2 0.00 0.00 0.00 88 1080.5
20260507032703 10 315 0.0 3.2 0.00 0.00 0.00 88 1080.3
20260507032603 10 315 0.0 3.2 0.00 0.00 0.00 88 1080.3
20260507032503 10 310 0.0 3.2 0.00 0.00 0.00 88 1080.2
20260507032403 10 306 0.0 3.2 0.00 0.00 0.00 88 1080.1
20260507032316 10 306 0.0 3.2 0.00 0.00 0.00 88 1080.1
20260507032305 10 306 0.0 3.2 0.00 0.00 0.00 88 1080.2
20260507032203 10 289 0.0 3.2 0.00 0.00 0.00 88 1080.5
20260507032003 10 214 0.0 6.4 0.00 0.00 0.00 88 1080.3
20260507031903 10 210 0.0 6.4 0.00 0.00 0.00 88 1080.2
20260507031803 10 210 0.0 6.4 0.00 0.00 0.00 88 1080.2
20260507031703 10 210 1.6 6.4 0.00 0.00 0.00 88 1080.0
20260507031603 10 209 1.6 6.4 0.00 0.00 0.00 89 1080.4
20260507031503 10 208 1.6 6.4 0.00 0.00 0.00 89 1080.4
20260507031403 10 205 1.6 6.4 0.00 0.00 0.00 89 1080.4
20260507031303 10 205 1.6 6.4 0.00 0.00 0.00 89 1080.4
20260507031103 10 208 1.6 6.4 0.00 0.00 0.00 88 1080.4
20260507031003 10 209 0.0 4.8 0.00 0.00 0.00 89 1080.0
20260507030917 10 209 0.0 4.8 0.00 0.00 0.00 88 1080.0
20260507030903 10 209 0.0 4.8 0.00 0.00 0.00 88 1080.4
20260507030817 10 209 0.0 4.8 0.00 0.00 0.00 89 1080.4
20260507030803 10 209 0.0 4.8 0.00 0.00 0.00 89 1080.2
20260507030616 10 210 0.0 4.8 0.00 0.00 0.00 87 1080.2
20260507030503 10 216 0.0 3.2 0.00 0.00 0.00 87 1080.2
20260507030418 10 220 0.0 1.6 0.00 0.00 0.00 88 1080.2
20260507030303 10 0 0.0 0.0 0.00 0.00 0.00 87 1080.3
20260507030003 10 0 0.0 0.0 0.00 0.00 0.00 87 1080.2
20260507025903 10 0 0.0 0.0 0.00 0.00 0.00 87 1080.3
20260507025803 10 0 0.0 0.0 0.00 0.00 0.00 87 1080.3
20260507025703 10 231 0.0 1.6 0.00 0.00 0.00 87 1080.2
20260507025603 10 231 0.0 1.6 0.00 0.00 0.00 87 1080.3
20260507025503 10 231 0.0 1.6 0.00 0.00 0.00 87 1080.3
20260507025403 10 219 0.0 1.6 0.00 0.00 0.00 87 1080.3
20260507025306 10 215 0.0 3.2 0.00 0.00 0.00 87 1080.1
20260507025203 10 210 0.0 3.2 0.00 0.00 0.00 87 1080.5
20260507025103 10 208 0.0 3.2 0.00 0.00 0.00 87 1080.3
20260507025003 10 207 0.0 3.2 0.00 0.00 0.00 87 1080.3
20260507024916 10 205 0.0 3.2 0.00 0.00 0.00 87 1080.3
20260507024903 10 205 0.0 3.2 0.00 0.00 0.00 87 1080.4
20260507024803 10 204 0.0 3.2 0.00 0.00 0.00 88 1080.1
20260507024603 10 201 1.6 3.2 0.00 0.00 0.00 87 1080.3
20260507024503 10 202 1.6 3.2 0.00 0.00 0.00 87 1080.1
20260507024403 10 203 1.6 3.2 0.00 0.00 0.00 88 1080.0
20260507024316 10 202 1.6 3.2 0.00 0.00 0.00 87 1080.0
20260507024303 10 202 1.6 3.2 0.00 0.00 0.00 87 1080.2
20260507024203 10 202 0.0 3.2 0.00 0.00 0.00 87 1080.2
20260507024003 10 200 0.0 3.2 0.00 0.00 0.00 87 1080.2
20260507023903 10 203 0.0 1.6 0.00 0.00 0.00 87 1080.3
20260507023803 10 205 0.0 1.6 0.00 0.00 0.00 87 1080.3
20260507023703 10 219 0.0 1.6 0.00 0.00 0.00 87 1080.1
20260507023603 10 225 0.0 1.6 0.00 0.00 0.00 87 1080.1
20260507023503 10 225 0.0 1.6 0.00 0.00 0.00 87 1080.1
20260507023403 10 0 0.0 0.0 0.00 0.00 0.00 87 1080.0
20260507023318 10 0 0.0 0.0 0.00 0.00 0.00 87 1080.0
20260507023203 10 0 0.0 0.0 0.00 0.00 0.00 87 1080.2
20260507023003 10 0 0.0 0.0 0.00 0.00 0.00 87 1080.2
20260507022903 10 222 0.0 1.6 0.00 0.00 0.00 87 1080.1
20260507022803 10 230 0.0 3.2 0.00 0.00 0.00 87 1079.9
20260507022703 10 230 0.0 3.2 0.00 0.00 0.00 87 1080.1
20260507022603 10 230 0.0 3.2 0.00 0.00 0.00 87 1080.3
20260507022503 10 230 0.0 3.2 0.00 0.00 0.00 87 1080.0
20260507022403 10 230 0.0 3.2 0.00 0.00 0.00 87 1079.9
20260507022306 10 230 0.0 3.2 0.00 0.00 0.00 87 1080.2
20260507022203 10 230 0.0 3.2 0.00 0.00 0.00 87 1080.2
20260507022103 10 230 0.0 3.2 0.00 0.00 0.00 87 1080.1
20260507021903 10 233 0.0 3.2 0.00 0.00 0.00 87 1080.3
20260507021803 10 289 0.0 3.2 0.00 0.00 0.00 87 1080.2
20260507021703 10 277 0.0 3.2 0.00 0.00 0.00 87 1080.3
20260507021603 10 267 0.0 3.2 0.00 0.00 0.00 87 1080.1
20260507021503 10 272 0.0 4.8 0.00 0.00 0.00 87 1080.2
20260507021404 10 269 0.0 4.8 0.00 0.00 0.00 87 1080.1
20260507021318 10 267 0.0 4.8 0.00 0.00 0.00 87 1080.1
20260507021303 10 267 0.0 4.8 0.00 0.00 0.00 87 1080.4
20260507021203 10 266 0.0 4.8 0.00 0.00 0.00 87 1079.9
20260507021003 10 263 0.0 4.8 0.00 0.00 0.00 87 1080.0
20260507020903 10 261 0.0 4.8 0.00 0.00 0.00 87 1080.1
20260507020803 10 260 0.0 4.8 0.00 0.00 0.00 87 1079.9
20260507020703 10 258 0.0 4.8 0.00 0.00 0.00 87 1080.1
20260507020603 10 256 0.0 4.8 0.00 0.00 0.00 87 1080.1
20260507020503 10 246 0.0 1.6 0.00 0.00 0.00 87 1080.0
20260507020403 10 239 0.0 6.4 0.00 0.00 0.00 87 1080.1
20260507020318 10 246 0.0 6.4 0.00 0.00 0.00 87 1080.1
20260507020303 10 243 0.0 6.4 0.00 0.00 0.00 87 1080.1
20260507020203 10 242 1.6 6.4 0.00 0.00 0.00 87 1080.0
20260507020003 10 242 1.6 6.4 0.00 0.00 0.00 87 1080.0
20260507015903 10 242 1.6 6.4 0.00 0.00 0.00 87 1080.1
20260507015803 10 244 1.6 6.4 0.00 0.00 0.00 87 1080.0
20260507015717 10 250 1.6 6.4 0.00 0.00 0.00 87 1080.0
20260507015703 10 253 1.6 6.4 0.00 0.00 0.00 87 1079.9
20260507015603 10 256 1.6 6.4 0.00 0.00 0.00 87 1079.9
20260507015517 10 255 1.6 6.4 0.00 0.00 0.00 87 1079.9
20260507015403 10 257 1.6 4.8 0.00 0.00 0.00 87 1079.7
20260507015203 10 265 1.6 4.8 0.00 0.00 0.00 86 1079.9
20260507015103 10 266 1.6 4.8 0.00 0.00 0.00 86 1080.0
20260507015003 10 264 1.6 4.8 0.00 0.00 0.00 86 1079.8
20260507014916 10 262 1.6 4.8 0.00 0.00 0.00 86 1079.8
20260507014903 10 261 1.6 4.8 0.00 0.00 0.00 86 1079.6
20260507014817 10 260 1.6 4.8 0.00 0.00 0.00 86 1079.6
20260507014803 11 260 1.6 4.8 0.00 0.00 0.00 86 1079.6
20260507014503 11 257 1.6 4.8 0.00 0.00 0.00 87 1079.5
20260507014403 11 256 1.6 4.8 0.00 0.00 0.00 87 1079.7
20260507014303 11 251 1.6 4.8 0.00 0.00 0.00 87 1079.6
20260507014203 11 246 1.6 4.8 0.00 0.00 0.00 87 1079.6
20260507014103 11 244 1.6 4.8 0.00 0.00 0.00 87 1079.5
20260507014003 11 245 1.6 4.8 0.00 0.00 0.00 87 1079.6
20260507013903 11 244 1.6 4.8 0.00 0.00 0.00 87 1079.5
20260507013803 11 245 1.6 4.8 0.00 0.00 0.00 86 1079.5
20260507013703 11 244 1.6 4.8 0.00 0.00 0.00 87 1079.6
20260507013603 11 247 1.6 3.2 0.00 0.00 0.00 86 1079.6
20260507013503 11 247 1.6 3.2 0.00 0.00 0.00 86 1079.6
20260507013403 11 254 1.6 3.2 0.00 0.00 0.00 86 1079.7
20260507013303 11 261 1.6 3.2 0.00 0.00 0.00 86 1079.6
20260507013203 11 272 1.6 3.2 0.00 0.00 0.00 86 1079.6
20260507013103 11 280 1.6 3.2 0.00 0.00 0.00 86 1079.6
20260507013003 11 286 1.6 3.2 0.00 0.00 0.00 86 1079.5
20260507012903 11 292 1.6 3.2 0.00 0.00 0.00 86 1079.4
20260507012803 11 297 1.6 3.2 0.00 0.00 0.00 87 1079.4
20260507012703 11 297 1.6 3.2 0.00 0.00 0.00 87 1079.5
20260507012603 11 287 1.6 3.2 0.00 0.00 0.00 87 1079.4
20260507012503 11 282 1.6 3.2 0.00 0.00 0.00 87 1079.4
20260507012403 11 276 1.6 3.2 0.00 0.00 0.00 87 1079.4
20260507012306 11 267 1.6 3.2 0.00 0.00 0.00 87 1079.3
20260507012203 11 260 1.6 4.8 0.00 0.00 0.00 87 1079.6
20260507012103 11 255 1.6 4.8 0.00 0.00 0.00 87 1079.7
20260507012017 11 255 1.6 4.8 0.00 0.00 0.00 86 1079.7
20260507012003 11 252 1.6 4.8 0.00 0.00 0.00 86 1079.8
20260507011903 11 248 1.6 4.8 0.00 0.00 0.00 86 1079.7
20260507011817 11 247 1.6 4.8 0.00 0.00 0.00 86 1079.7
20260507011703 11 246 1.6 4.8 0.00 0.00 0.00 86 1079.6
20260507011618 11 246 1.6 4.8 0.00 0.00 0.00 87 1079.6
20260507011516 11 246 1.6 4.8 0.00 0.00 0.00 87 1079.8
20260507011503 11 247 1.6 4.8 0.00 0.00 0.00 87 1079.8
20260507011203 11 244 1.6 4.8 0.00 0.00 0.00 87 1079.7
20260507011103 11 244 1.6 4.8 0.00 0.00 0.00 87 1079.5
20260507011003 11 244 1.6 4.8 0.00 0.00 0.00 87 1079.8
20260507010918 11 242 1.6 4.8 0.00 0.00 0.00 87 1079.8
20260507010903 11 240 1.6 4.8 0.00 0.00 0.00 87 1079.8
20260507010817 11 236 1.6 4.8 0.00 0.00 0.00 87 1079.8
20260507010503 11 232 1.6 6.4 0.00 0.00 0.00 87 1079.7
20260507010403 11 232 1.6 6.4 0.00 0.00 0.00 87 1079.7
20260507010303 11 232 1.6 6.4 0.00 0.00 0.00 87 1079.7
20260507010203 11 226 1.6 6.4 0.00 0.00 0.00 87 1079.7
20260507010003 11 224 1.6 6.4 0.00 0.00 0.00 87 1079.7
20260507005903 11 231 1.6 6.4 0.00 0.00 0.00 87 1079.5
20260507005803 11 240 1.6 6.4 0.00 0.00 0.00 87 1079.5
20260507005703 11 244 1.6 6.4 0.00 0.00 0.00 87 1079.6
20260507005603 11 247 1.6 6.4 0.00 0.00 0.00 88 1079.4
20260507005503 11 250 1.6 6.4 0.00 0.00 0.00 88 1079.5
20260507005403 11 253 3.2 6.4 0.00 0.00 0.00 87 1079.4
20260507005305 11 253 3.2 6.4 0.00 0.00 0.00 87 1079.4
20260507005203 11 259 3.2 6.4 0.00 0.00 0.00 87 1079.3
20260507005103 11 262 3.2 6.4 0.00 0.00 0.00 87 1079.5
20260507005003 11 262 3.2 6.4 0.00 0.00 0.00 88 1079.3
20260507004903 11 262 3.2 6.4 0.00 0.00 0.00 87 1079.5
20260507004803 11 258 3.2 6.4 0.00 0.00 0.00 87 1079.5
20260507004717 11 259 3.2 6.4 0.00 0.00 0.00 87 1079.5
20260507004703 11 258 3.2 6.4 0.00 0.00 0.00 88 1079.5
20260507004603 11 258 3.2 6.4 0.00 0.00 0.00 88 1079.5
20260507004516 11 256 3.2 6.4 0.00 0.00 0.00 88 1079.5
20260507004403 11 256 3.2 6.4 0.00 0.00 0.00 88 1079.4
20260507004203 11 260 3.2 6.4 0.00 0.00 0.00 87 1079.3
20260507004103 11 256 3.2 9.7 0.00 0.00 0.00 87 1079.4
20260507004003 11 253 3.2 9.7 0.00 0.00 0.00 87 1079.3
20260507003903 11 250 3.2 11.3 0.00 0.00 0.00 87 1079.3
20260507003816 11 249 3.2 11.3 0.00 0.00 0.00 87 1079.3
20260507003803 11 249 3.2 11.3 0.00 0.00 0.00 87 1079.4
20260507003703 11 242 3.2 11.3 0.00 0.00 0.00 87 1079.3
20260507003503 11 234 3.2 11.3 0.00 0.00 0.00 87 1079.4
20260507003417 11 225 3.2 11.3 0.00 0.00 0.00 87 1079.4
20260507003403 11 222 3.2 11.3 0.00 0.00 0.00 87 1079.4
20260507003303 11 213 3.2 11.3 0.00 0.00 0.00 87 1079.4
20260507003103 11 201 3.2 11.3 0.00 0.00 0.00 87 1079.4
20260507003003 11 199 3.2 11.3 0.00 0.00 0.00 86 1079.5
20260507002903 11 197 3.2 11.3 0.00 0.00 0.00 86 1079.6
20260507002816 11 199 3.2 11.3 0.00 0.00 0.00 86 1079.6
20260507002803 11 199 3.2 11.3 0.00 0.00 0.00 86 1079.5
20260507002703 11 200 3.2 11.3 0.00 0.00 0.00 87 1079.5
20260507002503 11 200 3.2 11.3 0.00 0.00 0.00 86 1079.3
20260507002403 11 200 3.2 11.3 0.00 0.00 0.00 86 1079.5
20260507002317 11 198 1.6 6.4 0.00 0.00 0.00 86 1079.5
20260507002306 11 198 1.6 6.4 0.00 0.00 0.00 86 1079.4
20260507002218 11 201 3.2 6.4 0.00 0.00 0.00 86 1079.4
20260507002203 11 202 3.2 6.4 0.00 0.00 0.00 86 1079.5
20260507001903 11 200 3.2 6.4 0.00 0.00 0.00 85 1079.5
20260507001803 11 199 3.2 6.4 0.00 0.00 0.00 85 1079.4
20260507001703 11 201 3.2 6.4 0.00 0.00 0.00 86 1079.5
20260507001603 11 203 3.2 9.7 0.00 0.00 0.00 86 1079.5
20260507001503 11 203 3.2 9.7 0.00 0.00 0.00 86 1079.6
20260507001403 11 203 3.2 9.7 0.00 0.00 0.00 86 1079.4
20260507001303 11 202 3.2 9.7 0.00 0.00 0.00 86 1079.4
20260507001218 11 199 3.2 9.7 0.00 0.00 0.00 85 1079.4
20260507001203 11 197 3.2 9.7 0.00 0.00 0.00 85 1079.2
20260507001103 11 196 3.2 9.7 0.00 0.00 0.00 85 1079.3
20260507000903 11 193 1.6 9.7 0.00 0.00 0.00 85 1079.2
20260507000803 11 196 1.6 9.7 0.00 0.00 0.00 85 1079.2
20260507000717 12 205 1.6 9.7 0.00 0.00 0.00 85 1079.2
20260507000703 12 207 1.6 9.7 0.00 0.00 0.00 85 1079.2
20260507000617 12 214 1.6 6.4 0.00 0.00 0.00 85 1079.2
20260507000603 12 215 1.6 6.4 0.00 0.00 0.00 85 1079.2
20260507000303 12 241 1.6 9.7 0.00 0.00 0.00 85 1079.2
20260507000219 12 242 1.6 9.7 0.00 0.00 0.00 85 1079.2
20260507000204 12 243 1.6 9.7 0.00 0.00 0.00 85 1079.2
20260506235917 12 231 3.2 9.7 0.00 0.00 0.00 85 1078.9
20260506235903 12 231 3.2 9.7 0.00 0.00 0.00 85 1079.2
20260506235803 12 228 3.2 9.7 0.00 0.00 0.00 85 1079.2
20260506235617 12 212 3.2 9.7 0.00 0.00 0.00 85 1079.0
20260506235603 12 210 3.2 9.7 0.00 0.00 0.00 85 1079.2
20260506235503 12 203 3.2 9.7 0.00 0.00 0.00 85 1078.8
20260506235306 12 191 3.2 6.4 0.00 0.00 0.00 85 1079.2
20260506235203 12 196 3.2 6.4 0.00 0.00 0.00 86 1079.3
20260506235103 12 198 1.6 6.4 0.00 0.00 0.00 86 1078.9
20260506235003 12 204 1.6 6.4 0.00 0.00 0.00 86 1079.0
20260506234903 12 208 3.2 6.4 0.00 0.00 0.00 86 1079.2
20260506234803 12 226 3.2 9.7 0.00 0.00 0.00 86 1078.9
20260506234703 12 285 3.2 9.7 0.00 0.00 0.00 85 1079.2
20260506234603 12 358 3.2 14.5 0.00 0.00 0.00 85 1078.7
20260506234518 12 358 3.2 14.5 0.00 0.00 0.00 85 1078.7
20260506234503 12 355 3.2 14.5 0.00 0.00 0.00 85 1078.8
20260506234403 12 357 3.2 14.5 0.00 0.00 0.00 85 1078.7
20260506234203 12 360 4.8 14.5 0.00 0.00 0.00 86 1078.5
20260506234103 12 1 4.8 14.5 0.00 0.00 0.00 86 1078.7
20260506234003 12 3 4.8 14.5 0.00 0.00 0.00 86 1078.5
20260506233903 12 1 3.2 14.5 0.00 0.00 0.00 86 1078.4
20260506233803 12 1 3.2 14.5 0.00 0.00 0.00 86 1078.2
20260506233717 12 356 3.2 14.5 0.00 0.00 0.00 86 1078.2
20260506233703 12 353 3.2 14.5 0.00 0.00 0.00 86 1078.4
20260506233603 12 340 3.2 11.3 0.00 0.00 0.00 86 1078.4
20260506233403 12 329 3.2 11.3 0.00 0.00 0.00 86 1078.4
20260506233303 12 323 3.2 11.3 0.00 0.00 0.00 86 1078.1
20260506233203 12 316 1.6 9.7 0.00 0.00 0.00 86 1078.2
20260506233103 12 311 1.6 9.7 0.00 0.00 0.00 86 1078.3
20260506233003 12 311 3.2 9.7 0.00 0.00 0.00 86 1078.3
20260506232903 12 322 3.2 11.3 0.00 0.00 0.00 86 1078.5
20260506232818 12 317 3.2 12.9 0.00 0.00 0.00 86 1078.5
20260506232803 12 319 4.8 12.9 0.00 0.00 0.00 86 1078.4
20260506232703 12 328 4.8 12.9 0.00 0.00 0.00 86 1078.4
20260506232503 12 340 4.8 12.9 0.00 0.00 0.00 86 1078.4
20260506232403 12 341 4.8 12.9 0.00 0.00 0.00 86 1078.4
20260506232306 12 340 6.4 16.1 0.00 0.00 0.00 86 1078.3
20260506232203 12 336 6.4 16.1 0.00 0.00 0.00 86 1078.1
20260506232103 12 341 6.4 16.1 0.00 0.00 0.00 86 1078.0
20260506232003 12 344 6.4 16.1 0.00 0.00 0.00 86 1078.0
20260506231903 12 344 8.0 16.1 0.00 0.00 0.00 86 1078.2
20260506231818 12 348 8.0 16.1 0.00 0.00 0.00 86 1078.2
20260506231803 12 349 8.0 16.1 0.00 0.00 0.00 86 1078.1
20260506231703 12 347 8.0 16.1 0.00 0.00 0.00 86 1078.1
20260506231503 12 348 8.0 16.1 0.00 0.00 0.00 86 1078.0
20260506231403 12 350 8.0 16.1 0.00 0.00 0.00 86 1078.1
20260506231303 12 352 6.4 16.1 0.00 0.00 0.00 86 1078.1
20260506231203 12 357 6.4 16.1 0.00 0.00 0.00 86 1078.4
20260506231103 12 354 6.4 16.1 0.00 0.00 0.00 86 1077.9
20260506231003 12 350 6.4 16.1 0.00 0.00 0.00 86 1078.0
20260506230903 12 347 6.4 16.1 0.00 0.00 0.00 86 1077.8
20260506230803 12 342 6.4 16.1 0.00 0.00 0.00 86 1078.2
20260506230703 12 339 6.4 16.1 0.00 0.00 0.00 86 1078.0
20260506230603 12 339 4.8 16.1 0.00 0.00 0.00 86 1078.1
20260506230503 12 335 4.8 16.1 0.00 0.00 0.00 86 1077.9
20260506230403 12 336 6.4 16.1 0.00 0.00 0.00 86 1078.0
20260506230303 12 332 6.4 16.1 0.00 0.00 0.00 86 1078.2
20260506230217 12 330 6.4 16.1 0.00 0.00 0.00 86 1078.2
20260506230203 12 328 6.4 16.1 0.00 0.00 0.00 86 1078.1
20260506230118 12 329 6.4 16.1 0.00 0.00 0.00 86 1078.1
20260506230103 12 331 6.4 16.1 0.00 0.00 0.00 86 1078.2
20260506225803 12 325 6.4 14.5 0.00 0.00 0.00 85 1078.1
20260506225703 12 322 6.4 14.5 0.00 0.00 0.00 85 1078.1
20260506225603 12 317 6.4 14.5 0.00 0.00 0.00 85 1078.0
20260506225517 12 312 6.4 14.5 0.00 0.00 0.00 85 1078.0
20260506225503 12 310 6.4 14.5 0.00 0.00 0.00 85 1078.0
20260506225403 12 298 8.0 14.5 0.00 0.00 0.00 85 1078.1
20260506225217 12 294 8.0 14.5 0.00 0.00 0.00 85 1078.0
20260506225203 12 293 8.0 14.5 0.00 0.00 0.00 85 1078.1
20260506225118 12 288 8.0 14.5 0.00 0.00 0.00 85 1078.1
20260506225103 12 288 8.0 14.5 0.00 0.00 0.00 85 1078.0
20260506224803 12 283 8.0 20.9 0.00 0.00 0.00 85 1078.3
20260506224703 12 286 9.7 20.9 0.00 0.00 0.00 84 1078.2
20260506224603 12 290 9.7 20.9 0.00 0.00 0.00 85 1078.2
20260506224503 12 293 9.7 22.5 0.00 0.00 0.00 84 1078.0
20260506224403 12 297 9.7 24.1 0.00 0.00 0.00 84 1078.0
20260506224303 12 299 9.7 24.1 0.00 0.00 0.00 84 1078.3
20260506224203 12 302 9.7 24.1 0.00 0.00 0.00 84 1078.1
20260506224118 12 306 9.7 24.1 0.00 0.00 0.00 84 1078.1
20260506224103 12 307 9.7 24.1 0.00 0.00 0.00 85 1077.9
20260506224003 12 313 9.7 24.1 0.00 0.00 0.00 84 1078.1
20260506223803 12 325 9.7 24.1 0.00 0.00 0.00 84 1077.8
20260506223703 12 328 9.7 24.1 0.00 0.00 0.00 84 1077.8
20260506223603 12 335 9.7 24.1 0.00 0.00 0.00 84 1077.7
20260506223403 12 338 9.7 24.1 0.00 0.00 0.00 84 1077.8
20260506223317 12 336 9.7 22.5 0.00 0.00 0.00 83 1077.8
20260506223303 12 334 9.7 22.5 0.00 0.00 0.00 83 1077.8
20260506223203 12 335 9.7 22.5 0.00 0.00 0.00 83 1077.8
20260506223003 12 331 9.7 22.5 0.00 0.00 0.00 83 1077.8
20260506222903 12 330 9.7 22.5 0.00 0.00 0.00 82 1077.8
20260506222803 12 322 9.7 20.9 0.00 0.00 0.00 82 1077.9
20260506222703 12 317 9.7 20.9 0.00 0.00 0.00 82 1077.9
20260506222603 12 309 9.7 20.9 0.00 0.00 0.00 82 1078.1
20260506222517 12 302 9.7 20.9 0.00 0.00 0.00 82 1078.1
20260506222503 12 302 9.7 20.9 0.00 0.00 0.00 82 1077.6
20260506222403 12 304 11.3 22.5 0.00 0.00 0.00 82 1077.9
20260506222203 12 310 11.3 22.5 0.00 0.00 0.00 82 1077.9
20260506222103 12 308 9.7 22.5 0.00 0.00 0.00 82 1077.7
20260506222003 12 307 9.7 22.5 0.00 0.00 0.00 82 1077.7
20260506221903 12 300 11.3 22.5 0.00 0.00 0.00 82 1077.8
20260506221803 12 300 11.3 22.5 0.00 0.00 0.00 82 1078.0
20260506221703 12 295 11.3 22.5 0.00 0.00 0.00 82 1077.5
20260506221603 12 289 11.3 22.5 0.00 0.00 0.00 82 1077.7
20260506221503 13 289 11.3 22.5 0.00 0.00 0.00 82 1077.9
20260506221418 13 287 11.3 22.5 0.00 0.00 0.00 82 1077.9
20260506221403 13 287 11.3 22.5 0.00 0.00 0.00 82 1077.7
20260506221303 13 284 11.3 25.7 0.00 0.00 0.00 82 1077.6
20260506221103 13 279 11.3 25.7 0.00 0.00 0.00 82 1077.9
20260506221003 13 276 11.3 25.7 0.00 0.00 0.00 82 1077.8
20260506220903 13 276 9.7 25.7 0.00 0.00 0.00 82 1077.8
20260506220803 13 270 9.7 25.7 0.00 0.00 0.00 82 1077.7
20260506220703 13 269 9.7 25.7 0.00 0.00 0.00 82 1078.1
20260506220603 13 272 9.7 25.7 0.00 0.00 0.00 82 1077.6
20260506220503 13 270 8.0 25.7 0.00 0.00 0.00 82 1078.0
20260506220403 13 265 8.0 25.7 0.00 0.00 0.00 82 1077.9
20260506220303 13 259 8.0 17.7 0.00 0.00 0.00 82 1077.8
20260506220203 13 258 8.0 17.7 0.00 0.00 0.00 82 1077.7
20260506220004 13 254 8.0 17.7 0.00 0.00 0.00 81 1078.1
20260506215903 13 253 8.0 17.7 0.00 0.00 0.00 81 1077.9
20260506215803 13 255 8.0 17.7 0.00 0.00 0.00 80 1077.8
20260506215703 13 252 6.4 16.1 0.00 0.00 0.00 81 1078.0
20260506215616 13 251 8.0 17.7 0.00 0.00 0.00 81 1078.0
20260506215603 13 250 8.0 17.7 0.00 0.00 0.00 81 1077.9
20260506215503 13 250 8.0 17.7 0.00 0.00 0.00 81 1077.9
20260506215316 14 247 8.0 17.7 0.00 0.00 0.00 80 1077.5
20260506215305 14 247 8.0 17.7 0.00 0.00 0.00 80 1077.8
20260506215203 14 240 6.4 17.7 0.00 0.00 0.00 80 1077.7
20260506215118 14 238 6.4 17.7 0.00 0.00 0.00 79 1077.7
20260506215003 14 226 6.4 17.7 0.00 0.00 0.00 79 1077.9
20260506214817 14 225 6.4 17.7 0.00 0.00 0.00 78 1077.7
20260506214803 14 223 6.4 17.7 0.00 0.00 0.00 78 1077.6
20260506214718 14 219 6.4 17.7 0.00 0.00 0.00 78 1077.6
20260506214703 14 218 6.4 17.7 0.00 0.00 0.00 78 1077.8
20260506214403 14 195 4.8 16.1 0.00 0.00 0.00 76 1077.6
20260506214303 14 192 4.8 16.1 0.00 0.00 0.00 76 1077.5
20260506214203 14 189 3.2 16.1 0.00 0.00 0.00 76 1077.7
20260506214103 14 183 3.2 16.1 0.00 0.00 0.00 75 1077.5
20260506214003 14 166 1.6 6.4 0.00 0.00 0.00 75 1077.6
20260506213903 14 129 1.6 6.4 0.00 0.00 0.00 75 1077.2
20260506213817 14 111 1.6 9.7 0.00 0.00 0.00 75 1077.2
20260506213803 14 106 1.6 9.7 0.00 0.00 0.00 74 1076.9
20260506213718 14 99 1.6 9.7 0.00 0.00 0.00 74 1076.9
20260506213703 14 96 1.6 9.7 0.00 0.00 0.00 73 1077.1
20260506213403 14 77 1.6 9.7 0.00 0.00 0.00 73 1076.9
20260506213303 14 77 1.6 9.7 0.00 0.00 0.00 73 1076.8
20260506213203 14 77 3.2 9.7 0.00 0.00 0.00 73 1077.0
20260506213103 14 76 3.2 9.7 0.00 0.00 0.00 73 1077.0
20260506213003 14 77 3.2 9.7 0.00 0.00 0.00 74 1076.9
20260506212903 14 76 3.2 9.7 0.00 0.00 0.00 74 1076.9
20260506212803 14 73 3.2 9.7 0.00 0.00 0.00 73 1076.7
20260506212703 14 71 3.2 9.7 0.00 0.00 0.00 73 1076.6
20260506212616 14 72 4.8 9.7 0.00 0.00 0.00 73 1076.6
20260506212603 14 72 4.8 9.7 0.00 0.00 0.00 73 1076.7
20260506212503 14 74 4.8 11.3 0.00 0.00 0.00 73 1076.8
20260506212316 15 74 4.8 11.3 0.00 0.00 0.00 73 1076.9
20260506212306 15 75 4.8 11.3 0.00 0.00 0.00 73 1076.7
20260506212217 15 75 4.8 11.3 0.00 0.00 0.00 73 1076.7
20260506212203 15 75 4.8 11.3 0.00 0.00 0.00 73 1076.8
20260506211903 15 78 6.4 11.3 0.00 0.00 0.00 74 1076.6
20260506211803 15 81 6.4 11.3 0.00 0.00 0.00 74 1076.8
20260506211703 15 82 6.4 11.3 0.00 0.00 0.00 74 1076.8
20260506211603 15 83 6.4 11.3 0.00 0.00 0.00 74 1076.7
20260506211503 15 83 6.4 11.3 0.00 0.00 0.00 74 1076.7
20260506211403 15 83 6.4 11.3 0.00 0.00 0.00 74 1076.8
20260506211318 15 83 6.4 11.3 0.00 0.00 0.00 74 1076.8
20260506211217 15 84 6.4 11.3 0.00 0.00 0.00 73 1076.7
20260506211203 15 83 6.4 11.3 0.00 0.00 0.00 73 1076.7
20260506210903 15 81 4.8 11.3 0.00 0.00 0.00 73 1076.7
20260506210803 15 78 4.8 11.3 0.00 0.00 0.00 73 1076.5
20260506210703 15 77 4.8 9.7 0.00 0.00 0.00 73 1076.6
20260506210603 15 76 4.8 11.3 0.00 0.00 0.00 73 1076.3
20260506210517 15 76 4.8 11.3 0.00 0.00 0.00 73 1076.3
20260506210503 15 74 4.8 11.3 0.00 0.00 0.00 73 1076.8
20260506210418 15 72 4.8 11.3 0.00 0.00 0.00 73 1076.8
20260506210403 15 72 4.8 11.3 0.00 0.00 0.00 73 1076.5
20260506210003 15 72 4.8 11.3 0.00 0.00 0.00 73 1076.5
20260506205916 15 74 4.8 11.3 0.00 0.00 0.00 73 1076.5
20260506205903 15 74 4.8 11.3 0.00 0.00 0.00 73 1076.7
20260506205803 15 72 4.8 11.3 0.00 0.00 0.00 73 1076.6
20260506205616 15 72 4.8 11.3 0.00 0.00 0.00 74 1076.6
20260506205603 14 71 4.8 11.3 0.00 0.00 0.00 74 1076.5
20260506205503 14 72 4.8 9.7 0.00 0.00 0.00 74 1076.5
20260506205305 14 73 4.8 9.7 0.00 0.00 0.00 74 1076.5
20260506205203 14 74 3.2 9.7 0.00 0.00 0.00 74 1076.6
20260506205103 14 70 3.2 9.7 0.00 0.00 0.00 74 1076.6
20260506205003 14 68 3.2 9.7 0.00 0.00 0.00 74 1076.5
20260506204903 14 67 3.2 9.7 0.00 0.00 0.00 74 1076.5
20260506204803 14 68 3.2 9.7 0.00 0.00 0.00 74 1076.5
20260506204703 14 69 3.2 9.7 0.00 0.00 0.00 73 1076.3
20260506204603 14 70 3.2 9.7 0.00 0.00 0.00 74 1076.3
20260506204503 14 68 3.2 6.4 0.00 0.00 0.00 73 1076.2
20260506204318 14 68 3.2 6.4 0.00 0.00 0.00 74 1076.6
20260506204304 14 68 3.2 6.4 0.00 0.00 0.00 74 1076.2
20260506204203 14 65 3.2 6.4 0.00 0.00 0.00 74 1076.3
20260506204117 14 65 3.2 6.4 0.00 0.00 0.00 73 1076.3
20260506204003 14 67 3.2 6.4 0.00 0.00 0.00 73 1076.6
20260506203803 14 64 3.2 6.4 0.00 0.00 0.00 74 1076.6
20260506203703 14 60 3.2 9.7 0.00 0.00 0.00 73 1076.6
20260506203603 14 60 3.2 9.7 0.00 0.00 0.00 73 1076.5
20260506203503 14 60 3.2 9.7 0.00 0.00 0.00 73 1076.5
20260506203403 14 62 3.2 9.7 0.00 0.00 0.00 74 1076.6
20260506203303 14 60 3.2 9.7 0.00 0.00 0.00 74 1076.6
20260506203203 14 59 3.2 9.7 0.00 0.00 0.00 74 1076.6
20260506203103 14 59 3.2 9.7 0.00 0.00 0.00 74 1076.6
20260506203003 14 55 3.2 9.7 0.00 0.00 0.00 74 1076.6
20260506202903 14 55 1.6 9.7 0.00 0.00 0.00 74 1076.7
20260506202803 14 54 1.6 9.7 0.00 0.00 0.00 74 1076.5
20260506202703 14 54 1.6 9.7 0.00 0.00 0.00 73 1076.5
20260506202603 14 49 1.6 9.7 0.00 0.00 0.00 73 1076.6
20260506202503 14 45 0.0 6.4 0.00 0.00 0.00 73 1076.6
20260506202403 14 45 0.0 6.4 0.00 0.00 0.00 73 1076.7
20260506202306 14 43 0.0 6.4 0.00 0.00 0.00 73 1076.5
20260506202216 14 44 0.0 6.4 0.00 0.00 0.00 73 1076.5
20260506202203 14 43 0.0 6.4 0.00 0.00 0.00 73 1076.5
20260506202103 14 39 0.0 6.4 0.00 0.00 0.00 72 1076.6
20260506201903 14 10 0.0 3.2 0.00 0.00 0.00 72 1076.5
20260506201803 14 1 0.0 3.2 0.00 0.00 0.00 73 1076.6
20260506201703 14 1 0.0 3.2 0.00 0.00 0.00 72 1076.4
20260506201603 15 4 0.0 3.2 0.00 0.00 0.00 72 1076.6
20260506201503 15 2 0.0 3.2 0.00 0.00 0.00 72 1076.6
20260506201403 15 358 1.6 4.8 0.00 0.00 0.00 72 1076.4
20260506201303 15 357 1.6 4.8 0.00 0.00 0.00 72 1076.5
20260506201203 15 357 1.6 4.8 0.00 0.00 0.00 74 1076.7
20260506201103 15 357 1.6 4.8 0.00 0.00 0.00 74 1076.6
20260506201017 15 357 1.6 4.8 0.00 0.00 0.00 71 1076.6
20260506201003 15 357 1.6 4.8 0.00 0.00 0.00 71 1076.5
20260506200903 15 354 1.6 4.8 0.00 0.00 0.00 72 1076.4
20260506200703 15 348 1.6 4.8 0.00 0.00 0.00 72 1076.7
20260506200603 15 340 1.6 4.8 0.00 0.00 0.00 73 1076.7
20260506200503 15 336 1.6 4.8 0.00 0.00 0.00 73 1076.5
20260506200303 15 345 1.6 6.4 0.00 0.00 0.00 72 1076.6
20260506200218 15 345 1.6 6.4 0.00 0.00 0.00 72 1076.6
20260506195903 15 345 3.2 6.4 0.00 0.00 0.00 73 1076.7
20260506195803 15 344 3.2 6.4 0.00 0.00 0.00 72 1076.8
20260506195703 15 343 3.2 6.4 0.00 0.00 0.00 72 1076.5
20260506195603 15 341 3.2 6.4 0.00 0.00 0.00 71 1076.5
20260506195503 15 342 3.2 6.4 0.00 0.00 0.00 72 1076.7
20260506195403 15 342 3.2 6.4 0.00 0.00 0.00 71 1076.4
20260506195317 15 342 3.2 6.4 0.00 0.00 0.00 71 1076.4
20260506195305 15 341 3.2 6.4 0.00 0.00 0.00 70 1076.7
20260506195218 15 340 3.2 4.8 0.00 0.00 0.00 70 1076.7
20260506195203 15 340 3.2 4.8 0.00 0.00 0.00 70 1076.8
20260506194903 16 339 3.2 6.4 0.00 0.00 0.00 69 1076.7
20260506194803 16 337 3.2 6.4 0.00 0.00 0.00 70 1076.7
20260506194703 16 340 3.2 6.4 0.00 0.00 0.00 69 1076.6
20260506194603 16 341 3.2 6.4 0.00 0.00 0.00 68 1076.6
20260506194503 16 341 3.2 6.4 0.00 0.00 0.00 69 1076.5
20260506194403 16 341 3.2 6.4 0.00 0.00 0.00 68 1076.7
20260506194303 16 340 3.2 6.4 0.00 0.00 0.00 67 1076.8
20260506194221 16 341 3.2 6.4 0.00 0.00 0.00 67 1076.8
20260506194004 16 345 1.6 6.4 0.00 0.00 0.00 67 1076.5
20260506193903 16 354 1.6 6.4 0.00 0.00 0.00 66 1076.5
20260506193803 16 358 1.6 4.8 0.00 0.00 0.00 66 1076.8
20260506193703 16 360 1.6 4.8 0.00 0.00 0.00 66 1076.5
20260506193617 16 2 1.6 4.8 0.00 0.00 0.00 66 1076.5
20260506193603 16 3 1.6 4.8 0.00 0.00 0.00 66 1076.6
20260506193503 16 8 3.2 4.8 0.00 0.00 0.00 66 1076.4
20260506193418 16 13 3.2 4.8 0.00 0.00 0.00 66 1076.4
20260506193303 16 18 3.2 6.4 0.00 0.00 0.00 66 1076.6
20260506193103 16 25 1.6 6.4 0.00 0.00 0.00 65 1076.4
20260506193003 16 25 1.6 6.4 0.00 0.00 0.00 66 1076.5
20260506192917 16 21 1.6 6.4 0.00 0.00 0.00 66 1076.5
20260506192903 16 22 1.6 6.4 0.00 0.00 0.00 65 1076.6
20260506192803 16 27 1.6 6.4 0.00 0.00 0.00 65 1076.4
20260506192603 16 47 3.2 9.7 0.00 0.00 0.00 65 1076.5
20260506192503 16 53 1.6 9.7 0.00 0.00 0.00 64 1076.6
20260506192403 16 56 3.2 11.3 0.00 0.00 0.00 64 1076.3
20260506192305 16 61 3.2 11.3 0.00 0.00 0.00 64 1076.4
20260506192203 16 63 3.2 11.3 0.00 0.00 0.00 64 1076.4
20260506192103 16 61 4.8 11.3 0.00 0.00 0.00 64 1076.3
20260506192003 16 63 4.8 11.3 0.00 0.00 0.00 64 1076.2
20260506191903 16 64 4.8 11.3 0.00 0.00 0.00 64 1076.4
20260506191818 16 64 4.8 11.3 0.00 0.00 0.00 64 1076.4
20260506191803 16 64 4.8 11.3 0.00 0.00 0.00 64 1076.3
20260506191703 16 63 4.8 11.3 0.00 0.00 0.00 64 1076.4
20260506191503 16 64 6.4 12.9 0.00 0.00 0.00 64 1076.4
20260506191403 16 65 6.4 12.9 0.00 0.00 0.00 64 1076.2
20260506191303 16 64 6.4 12.9 0.00 0.00 0.00 64 1076.3
20260506191203 17 64 4.8 12.9 0.00 0.00 0.00 64 1076.4
20260506191103 17 67 4.8 12.9 0.00 0.00 0.00 63 1076.4
20260506191003 17 65 4.8 12.9 0.00 0.00 0.00 63 1076.2
20260506190903 17 67 4.8 12.9 0.00 0.00 0.00 63 1076.3
20260506190803 17 69 4.8 12.9 0.00 0.00 0.00 63 1076.2
20260506190703 17 68 6.4 12.9 0.00 0.00 0.00 63 1076.3
20260506190603 17 67 6.4 12.9 0.00 0.00 0.00 63 1076.3
20260506190503 17 66 6.4 12.9 0.00 0.00 0.00 63 1076.2
20260506190403 17 65 6.4 20.9 0.00 0.00 0.00 63 1076.4
20260506190303 17 65 6.4 20.9 0.00 0.00 0.00 63 1076.1
20260506190203 17 64 6.4 20.9 0.00 0.00 0.00 63 1076.3
20260506190004 17 63 6.4 20.9 0.00 0.00 0.00 63 1076.3
20260506185903 17 60 6.4 20.9 0.00 0.00 0.00 63 1076.3